Wetterdaten: Dienstag, 22.12.2015
Datum Zeit Temp. Aussen Temp. o. S. +5cm Feuchte Auss BlattFeu 1 Luftdruck Regen Sonnenschein Regendauer Solar Windben Empfang
22.12.2015 00:00 10,9 C 10,6 C 9,4 C 96 % 15 lf 1021,6 hPa 0,0 l/m 0 min 0 min 0 W/m 25,1 km/h (4 Bft) 89,36 %
22.12.2015 00:02 10,9 C 10,6 C 9,4 C 96 % 15 lf 1021,7 hPa 0,0 l/m 0 min 2 min 0 W/m 31,4 km/h (5 Bft) 93,94 %
22.12.2015 00:05 10,9 C 10,6 C 9,4 C 96 % 15 lf 1021,6 hPa 0,0 l/m 0 min 0 min 0 W/m 33,5 km/h (5 Bft) 92,86 %
22.12.2015 00:06 10,9 C 10,6 C 9,4 C 96 % 15 lf 1021,6 hPa 0,0 l/m 0 min 0 min 0 W/m 27,2 km/h (4 Bft) 91,67 %
22.12.2015 00:08 10,9 C 10,6 C 9,4 C 96 % 15 lf 1021,7 hPa 0,0 l/m 0 min 0 min 0 W/m 31,4 km/h (5 Bft) 95,74 %
22.12.2015 00:10 10,9 C 10,6 C 9,4 C 96 % 15 lf 1021,9 hPa 0,0 l/m 0 min 0 min 0 W/m 29,3 km/h (5 Bft) 97,83 %
22.12.2015 00:12 10,9 C 10,6 C 9,4 C 96 % 15 lf 1021,9 hPa 0,0 l/m 0 min 0 min 0 W/m 23,0 km/h (4 Bft) 95,74 %
22.12.2015 00:14 10,9 C 10,6 C 9,4 C 96 % 15 lf 1021,9 hPa 0,0 l/m 0 min 0 min 0 W/m 31,4 km/h (5 Bft) 95,74 %
22.12.2015 00:16 10,9 C 10,6 C 9,4 C 96 % 15 lf 1021,9 hPa 0,0 l/m 0 min 0 min 0 W/m 29,3 km/h (5 Bft) 93,62 %
22.12.2015 00:18 10,9 C 10,6 C 9,4 C 96 % 15 lf 1021,9 hPa 0,0 l/m 0 min 0 min 0 W/m 27,2 km/h (4 Bft) 95,74 %
22.12.2015 00:20 10,9 C 10,6 C 9,4 C 96 % 15 lf 1021,7 hPa 0,0 l/m 0 min 0 min 0 W/m 23,0 km/h (4 Bft) 93,62 %
22.12.2015 00:22 10,9 C 10,6 C 9,4 C 96 % 15 lf 1021,9 hPa 0,0 l/m 0 min 0 min 0 W/m 29,3 km/h (5 Bft) 97,83 %
22.12.2015 00:24 10,9 C 10,6 C 9,4 C 96 % 15 lf 1021,8 hPa 0,0 l/m 0 min 0 min 0 W/m 27,2 km/h (4 Bft) 95,74 %
22.12.2015 00:26 10,9 C 10,6 C 9,4 C 96 % 15 lf 1021,7 hPa 0,0 l/m 0 min 0 min 0 W/m 23,0 km/h (4 Bft) 97,87 %
22.12.2015 00:28 10,9 C 10,6 C 9,4 C 96 % 15 lf 1021,7 hPa 0,0 l/m 0 min 0 min 0 W/m 27,2 km/h (4 Bft) 97,87 %
22.12.2015 00:30 10,9 C 10,6 C 9,4 C 96 % 15 lf 1021,7 hPa 0,0 l/m 0 min 0 min 0 W/m 20,9 km/h (4 Bft) 97,87 %
22.12.2015 00:32 10,9 C 10,6 C 9,4 C 96 % 15 lf 1021,7 hPa 0,0 l/m 0 min 0 min 0 W/m 25,1 km/h (4 Bft) 97,87 %
22.12.2015 00:34 10,9 C 10,6 C 9,4 C 96 % 15 lf 1021,7 hPa 0,0 l/m 0 min 0 min 0 W/m 18,8 km/h (3 Bft) 93,48 %
22.12.2015 00:36 11,0 C 10,6 C 9,4 C 96 % 15 lf 1021,7 hPa 0,0 l/m 0 min 0 min 0 W/m 14,6 km/h (3 Bft) 97,87 %
22.12.2015 00:38 11,0 C 10,6 C 9,4 C 96 % 15 lf 1021,7 hPa 0,0 l/m 0 min 0 min 0 W/m 18,8 km/h (3 Bft) 95,74 %
22.12.2015 00:40 11,0 C 11,1 C 9,4 C 96 % 15 lf 1021,8 hPa 0,0 l/m 0 min 0 min 0 W/m 23,0 km/h (4 Bft) 93,62 %
22.12.2015 00:42 11,0 C 10,6 C 9,4 C 96 % 15 lf 1021,7 hPa 0,0 l/m 0 min 0 min 0 W/m 14,6 km/h (3 Bft) 95,74 %
22.12.2015 00:44 11,0 C 10,6 C 9,4 C 96 % 15 lf 1021,8 hPa 0,0 l/m 0 min 0 min 0 W/m 14,6 km/h (3 Bft) 95,74 %
22.12.2015 00:46 11,0 C 10,6 C 9,4 C 96 % 15 lf 1021,9 hPa 0,0 l/m 0 min 0 min 0 W/m 18,8 km/h (3 Bft) 93,48 %
22.12.2015 00:48 10,9 C 10,6 C 9,4 C 96 % 15 lf 1022,0 hPa 0,0 l/m 0 min 0 min 0 W/m 25,1 km/h (4 Bft) 97,87 %
22.12.2015 00:50 10,9 C 10,6 C 9,4 C 96 % 15 lf 1022,0 hPa 0,0 l/m 0 min 0 min 0 W/m 20,9 km/h (4 Bft) 95,74 %
22.12.2015 00:52 10,9 C 10,6 C 9,4 C 96 % 15 lf 1022,1 hPa 0,0 l/m 0 min 0 min 0 W/m 18,8 km/h (3 Bft) 93,62 %
22.12.2015 00:54 10,9 C 10,6 C 9,4 C 96 % 15 lf 1022,2 hPa 0,0 l/m 0 min 0 min 0 W/m 20,9 km/h (4 Bft) 97,87 %
22.12.2015 00:56 10,9 C 10,6 C 9,4 C 95 % 15 lf 1022,1 hPa 0,0 l/m 0 min 0 min 0 W/m 23,0 km/h (4 Bft) 97,87 %
22.12.2015 00:58 10,9 C 10,6 C 9,4 C 95 % 15 lf 1022,2 hPa 0,0 l/m 0 min 0 min 0 W/m 20,9 km/h (4 Bft) 95,65 %
22.12.2015 01:00 10,9 C 10,6 C 9,4 C 95 % 15 lf 1022,2 hPa 0,0 l/m 0 min 0 min 0 W/m 20,9 km/h (4 Bft) 95,74 %
22.12.2015 01:02 10,9 C 10,6 C 9,4 C 95 % 15 lf 1022,2 hPa 0,0 l/m 0 min 0 min 0 W/m 23,0 km/h (4 Bft) 93,62 %
22.12.2015 01:04 10,9 C 10,6 C 9,4 C 95 % 15 lf 1022,2 hPa 0,0 l/m 0 min 0 min 0 W/m 23,0 km/h (4 Bft) 93,62 %
22.12.2015 01:06 10,9 C 10,6 C 9,4 C 95 % 15 lf 1022,1 hPa 0,0 l/m 0 min 0 min 0 W/m 25,1 km/h (4 Bft) 93,62 %
22.12.2015 01:08 10,9 C 10,6 C 9,4 C 95 % 15 lf 1022,2 hPa 0,0 l/m 0 min 0 min 0 W/m 18,8 km/h (3 Bft) 93,48 %
22.12.2015 01:10 10,9 C 10,6 C 9,4 C 95 % 15 lf 1022,1 hPa 0,0 l/m 0 min 0 min 0 W/m 14,6 km/h (3 Bft) 95,74 %
22.12.2015 01:12 10,9 C 10,6 C 9,4 C 95 % 15 lf 1022,1 hPa 0,0 l/m 0 min 0 min 0 W/m 27,2 km/h (4 Bft) 95,74 %
22.12.2015 01:14 10,9 C 10,6 C 9,4 C 95 % 15 lf 1022,0 hPa 0,0 l/m 0 min 0 min 0 W/m 33,5 km/h (5 Bft) 97,87 %
22.12.2015 01:16 10,9 C 10,6 C 9,4 C 95 % 15 lf 1022,0 hPa 0,0 l/m 0 min 0 min 0 W/m 16,7 km/h (3 Bft) 95,74 %
22.12.2015 01:18 10,9 C 10,6 C 8,9 C 95 % 15 lf 1022,0 hPa 0,0 l/m 0 min 0 min 0 W/m 14,6 km/h (3 Bft) 95,74 %
22.12.2015 01:20 10,9 C 10,6 C 8,9 C 95 % 15 lf 1022,0 hPa 0,0 l/m 0 min 0 min 0 W/m 20,9 km/h (4 Bft) 97,83 %
22.12.2015 01:22 10,9 C 10,6 C 8,9 C 95 % 15 lf 1021,9 hPa 0,0 l/m 0 min 0 min 0 W/m 23,0 km/h (4 Bft) 91,49 %
22.12.2015 01:24 10,9 C 10,6 C 8,9 C 95 % 15 lf 1021,9 hPa 0,0 l/m 0 min 0 min 0 W/m 20,9 km/h (4 Bft) 95,74 %
22.12.2015 01:26 10,9 C 10,6 C 8,9 C 95 % 15 lf 1022,1 hPa 0,0 l/m 0 min 0 min 0 W/m 29,3 km/h (5 Bft) 89,36 %
22.12.2015 01:28 10,9 C 10,6 C 9,4 C 95 % 15 lf 1022,1 hPa 0,0 l/m 0 min 0 min 0 W/m 23,0 km/h (4 Bft) 95,74 %
22.12.2015 01:30 10,9 C 10,6 C 9,4 C 95 % 15 lf 1022,0 hPa 0,0 l/m 0 min 0 min 0 W/m 25,1 km/h (4 Bft) 95,74 %
22.12.2015 01:32 10,9 C 11,1 C 9,4 C 95 % 15 lf 1022,0 hPa 0,0 l/m 0 min 0 min 0 W/m 37,7 km/h (5 Bft) 91,30 %
22.12.2015 01:34 10,9 C 11,1 C 9,4 C 95 % 15 lf 1022,0 hPa 0,0 l/m 0 min 0 min 0 W/m 25,1 km/h (4 Bft) 93,62 %
22.12.2015 01:36 10,9 C 11,1 C 9,4 C 95 % 15 lf 1022,1 hPa 0,0 l/m 0 min 0 min 0 W/m 27,2 km/h (4 Bft) 95,74 %
22.12.2015 01:38 10,9 C 11,1 C 9,4 C 95 % 15 lf 1022,0 hPa 0,0 l/m 0 min 0 min 0 W/m 35,6 km/h (5 Bft) 93,62 %
22.12.2015 01:40 11,0 C 11,1 C 9,4 C 95 % 15 lf 1022,0 hPa 0,0 l/m 0 min 0 min 0 W/m 18,8 km/h (3 Bft) 95,74 %
22.12.2015 01:42 11,0 C 11,1 C 9,4 C 95 % 15 lf 1022,0 hPa 0,0 l/m 0 min 0 min 0 W/m 29,3 km/h (5 Bft) 93,48 %
22.12.2015 01:44 11,0 C 11,1 C 9,4 C 95 % 15 lf 1022,1 hPa 0,0 l/m 0 min 0 min 0 W/m 20,9 km/h (4 Bft) 93,62 %
22.12.2015 01:46 11,0 C 11,1 C 9,4 C 95 % 14 lf 1022,1 hPa 0,0 l/m 0 min 0 min 0 W/m 23,0 km/h (4 Bft) 97,87 %
22.12.2015 01:48 11,1 C 11,1 C 9,4 C 95 % 14 lf 1022,1 hPa 0,0 l/m 0 min 0 min 0 W/m 16,7 km/h (3 Bft) 97,87 %
22.12.2015 01:50 11,1 C 11,1 C 9,4 C 95 % 14 lf 1022,1 hPa 0,0 l/m 0 min 0 min 0 W/m 20,9 km/h (4 Bft) 97,87 %
22.12.2015 01:52 11,1 C 11,1 C 9,4 C 95 % 13 lf 1022,0 hPa 0,0 l/m 0 min 0 min 0 W/m 23,0 km/h (4 Bft) 93,62 %
22.12.2015 01:54 11,1 C 11,1 C 9,4 C 95 % 13 lf 1021,9 hPa 0,0 l/m 0 min 0 min 0 W/m 18,8 km/h (3 Bft) 97,83 %
22.12.2015 01:56 11,1 C 11,1 C 9,4 C 95 % 12 lf 1021,8 hPa 0,0 l/m 0 min 0 min 0 W/m 23,0 km/h (4 Bft) 100,00 %
22.12.2015 01:58 11,1 C 11,1 C 9,4 C 95 % 12 lf 1021,7 hPa 0,0 l/m 0 min 0 min 0 W/m 29,3 km/h (5 Bft) 100,00 %
22.12.2015 02:00 11,1 C 11,1 C 9,4 C 95 % 10 lf 1021,7 hPa 0,0 l/m 0 min 0 min 0 W/m 33,5 km/h (5 Bft) 91,49 %
22.12.2015 02:02 11,1 C 11,1 C 9,4 C 95 % 9 lf 1021,7 hPa 0,0 l/m 0 min 0 min 0 W/m 31,4 km/h (5 Bft) 100,00 %
22.12.2015 02:04 11,1 C 11,1 C 9,4 C 95 % 9 lf 1021,7 hPa 0,0 l/m 0 min 0 min 0 W/m 33,5 km/h (5 Bft) 97,87 %
22.12.2015 02:06 11,1 C 11,1 C 9,4 C 95 % 7 lf 1021,6 hPa 0,0 l/m 0 min 0 min 0 W/m 31,4 km/h (5 Bft) 100,00 %
22.12.2015 02:08 11,1 C 11,1 C 9,4 C 95 % 6 lf 1021,7 hPa 0,0 l/m 0 min 0 min 0 W/m 27,2 km/h (4 Bft) 95,74 %
22.12.2015 02:10 11,1 C 11,1 C 9,4 C 95 % 5 lf 1021,8 hPa 0,0 l/m 0 min 0 min 0 W/m 20,9 km/h (4 Bft) 97,87 %
22.12.2015 02:12 11,1 C 11,1 C 9,4 C 95 % 4 lf 1021,8 hPa 0,0 l/m 0 min 0 min 0 W/m 29,3 km/h (5 Bft) 100,00 %
22.12.2015 02:14 11,1 C 11,1 C 9,4 C 95 % 3 lf 1021,8 hPa 0,0 l/m 0 min 0 min 0 W/m 31,4 km/h (5 Bft) 97,87 %
22.12.2015 02:16 11,1 C 11,1 C 9,4 C 95 % 2 lf 1021,6 hPa 0,0 l/m 0 min 0 min 0 W/m 29,3 km/h (5 Bft) 95,74 %
22.12.2015 02:18 11,1 C 11,7 C 9,4 C 95 % 1 lf 1021,6 hPa 0,0 l/m 0 min 0 min 0 W/m 31,4 km/h (5 Bft) 93,48 %
22.12.2015 02:20 11,1 C 11,7 C 9,4 C 95 % 1 lf 1021,7 hPa 0,0 l/m 0 min 0 min 0 W/m 25,1 km/h (4 Bft) 95,74 %
22.12.2015 02:22 11,1 C 11,7 C 9,4 C 95 % 0 lf 1021,6 hPa 0,0 l/m 0 min 0 min 0 W/m 31,4 km/h (5 Bft) 95,74 %
22.12.2015 02:24 11,2 C 11,7 C 10,0 C 95 % 0 lf 1021,7 hPa 0,0 l/m 0 min 0 min 0 W/m 27,2 km/h (4 Bft) 97,87 %
22.12.2015 02:26 11,2 C 11,7 C 10,0 C 95 % 0 lf 1021,7 hPa 0,0 l/m 0 min 0 min 0 W/m 23,0 km/h (4 Bft) 97,87 %
22.12.2015 02:28 11,2 C 11,1 C 10,0 C 95 % 0 lf 1021,6 hPa 0,0 l/m 0 min 0 min 0 W/m 27,2 km/h (4 Bft) 97,87 %
22.12.2015 02:30 11,2 C 11,1 C 9,4 C 95 % 0 lf 1021,6 hPa 0,0 l/m 0 min 0 min 0 W/m 18,8 km/h (3 Bft) 93,48 %
22.12.2015 02:32 11,2 C 11,1 C 9,4 C 95 % 0 lf 1021,6 hPa 0,0 l/m 0 min 0 min 0 W/m 16,7 km/h (3 Bft) 92,45 %
22.12.2015 02:34 11,2 C 11,1 C 9,4 C 95 % 0 lf 1021,6 hPa 0,0 l/m 0 min 0 min 0 W/m 27,2 km/h (4 Bft) 97,87 %
22.12.2015 02:36 11,2 C 11,7 C 9,4 C 95 % 0 lf 1021,7 hPa 0,0 l/m 0 min 0 min 0 W/m 29,3 km/h (5 Bft) 97,87 %
22.12.2015 02:38 11,2 C 11,7 C 9,4 C 95 % 0 lf 1021,8 hPa 0,0 l/m 0 min 0 min 0 W/m 25,1 km/h (4 Bft) 97,87 %
22.12.2015 02:40 11,2 C 11,7 C 10,0 C 95 % 0 lf 1021,8 hPa 0,0 l/m 0 min 0 min 0 W/m 29,3 km/h (5 Bft) 97,87 %
22.12.2015 02:42 11,2 C 11,7 C 10,0 C 95 % 0 lf 1021,8 hPa 0,0 l/m 0 min 0 min 0 W/m 33,5 km/h (5 Bft) 97,87 %
22.12.2015 02:44 11,2 C 11,7 C 10,0 C 95 % 0 lf 1021,9 hPa 0,0 l/m 0 min 0 min 0 W/m 14,6 km/h (3 Bft) 97,83 %
22.12.2015 02:46 11,2 C 11,7 C 10,0 C 95 % 0 lf 1021,9 hPa 0,0 l/m 0 min 0 min 0 W/m 27,2 km/h (4 Bft) 97,87 %
22.12.2015 02:48 11,2 C 11,7 C 10,0 C 95 % 0 lf 1021,9 hPa 0,0 l/m 0 min 0 min 0 W/m 18,8 km/h (3 Bft) 95,74 %
22.12.2015 02:50 11,2 C 11,7 C 10,0 C 94 % 0 lf 1021,9 hPa 0,0 l/m 0 min 0 min 0 W/m 27,2 km/h (4 Bft) 89,36 %
22.12.2015 02:52 11,2 C 11,7 C 10,0 C 94 % 0 lf 1021,8 hPa 0,0 l/m 0 min 0 min 0 W/m 29,3 km/h (5 Bft) 97,87 %
22.12.2015 02:54 11,2 C 11,7 C 10,0 C 94 % 0 lf 1021,9 hPa 0,0 l/m 0 min 0 min 0 W/m 29,3 km/h (5 Bft) 97,87 %
22.12.2015 02:56 11,3 C 11,7 C 10,0 C 94 % 0 lf 1021,8 hPa 0,0 l/m 0 min 0 min 0 W/m 31,4 km/h (5 Bft) 97,83 %
22.12.2015 02:58 11,3 C 11,7 C 10,0 C 94 % 0 lf 1021,8 hPa 0,0 l/m 0 min 0 min 0 W/m 31,4 km/h (5 Bft) 97,87 %
22.12.2015 03:00 11,3 C 11,7 C 10,0 C 94 % 0 lf 1021,8 hPa 0,0 l/m 0 min 0 min 0 W/m 31,4 km/h (5 Bft) 97,87 %
22.12.2015 03:02 11,3 C 11,7 C 10,0 C 94 % 0 lf 1021,7 hPa 0,0 l/m 0 min 0 min 0 W/m 27,2 km/h (4 Bft) 97,87 %
22.12.2015 03:04 11,3 C 11,7 C 10,0 C 94 % 0 lf 1021,8 hPa 0,0 l/m 0 min 0 min 0 W/m 20,9 km/h (4 Bft) 93,62 %
22.12.2015 03:06 11,3 C 11,7 C 10,0 C 94 % 0 lf 1021,8 hPa 0,0 l/m 0 min 0 min 0 W/m 27,2 km/h (4 Bft) 97,87 %
22.12.2015 03:08 11,3 C 11,7 C 10,0 C 94 % 0 lf 1021,8 hPa 0,0 l/m 0 min 0 min 0 W/m 27,2 km/h (4 Bft) 93,48 %
22.12.2015 03:10 11,3 C 11,7 C 10,0 C 94 % 0 lf 1021,7 hPa 0,0 l/m 0 min 0 min 0 W/m 31,4 km/h (5 Bft) 97,87 %
22.12.2015 03:12 11,3 C 11,7 C 10,0 C 94 % 0 lf 1021,8 hPa 0,0 l/m 0 min 0 min 0 W/m 23,0 km/h (4 Bft) 95,74 %
22.12.2015 03:14 11,3 C 11,7 C 10,0 C 94 % 0 lf 1021,9 hPa 0,0 l/m 0 min 0 min 0 W/m 33,5 km/h (5 Bft) 95,74 %
22.12.2015 03:16 11,3 C 11,7 C 10,0 C 94 % 0 lf 1021,8 hPa 0,0 l/m 0 min 0 min 0 W/m 31,4 km/h (5 Bft) 95,74 %
22.12.2015 03:18 11,3 C 11,7 C 10,0 C 94 % 0 lf 1021,8 hPa 0,0 l/m 0 min 0 min 0 W/m 23,0 km/h (4 Bft) 97,83 %
22.12.2015 03:20 11,4 C 11,7 C 10,0 C 94 % 0 lf 1021,7 hPa 0,0 l/m 0 min 0 min 0 W/m 29,3 km/h (5 Bft) 93,62 %
22.12.2015 03:22 11,3 C 11,7 C 10,0 C 94 % 0 lf 1021,7 hPa 0,0 l/m 0 min 0 min 0 W/m 25,1 km/h (4 Bft) 97,87 %
22.12.2015 03:24 11,4 C 11,7 C 10,0 C 94 % 0 lf 1021,7 hPa 0,0 l/m 0 min 0 min 0 W/m 25,1 km/h (4 Bft) 95,74 %
22.12.2015 03:26 11,4 C 11,7 C 10,0 C 94 % 0 lf 1021,6 hPa 0,0 l/m 0 min 0 min 0 W/m 27,2 km/h (4 Bft) 93,62 %
22.12.2015 03:28 11,4 C 11,7 C 10,0 C 94 % 0 lf 1021,7 hPa 0,0 l/m 0 min 0 min 0 W/m 33,5 km/h (5 Bft) 95,74 %
22.12.2015 03:30 11,4 C 11,7 C 10,0 C 94 % 0 lf 1021,7 hPa 0,0 l/m 0 min 0 min 0 W/m 27,2 km/h (4 Bft) 91,30 %
22.12.2015 03:32 11,4 C 11,7 C 10,0 C 94 % 0 lf 1021,6 hPa 0,0 l/m 0 min 0 min 0 W/m 18,8 km/h (3 Bft) 97,92 %
22.12.2015 03:34 11,4 C 11,7 C 10,0 C 94 % 0 lf 1021,7 hPa 0,0 l/m 0 min 0 min 0 W/m 29,3 km/h (5 Bft) 95,74 %
22.12.2015 03:36 11,4 C 11,7 C 10,0 C 94 % 0 lf 1021,8 hPa 0,0 l/m 0 min 0 min 0 W/m 35,6 km/h (5 Bft) 97,87 %
22.12.2015 03:38 11,4 C 11,7 C 10,0 C 94 % 0 lf 1021,9 hPa 0,0 l/m 0 min 0 min 0 W/m 25,1 km/h (4 Bft) 95,74 %
22.12.2015 03:40 11,4 C 11,7 C 10,0 C 94 % 0 lf 1021,9 hPa 0,0 l/m 0 min 0 min 0 W/m 29,3 km/h (5 Bft) 97,87 %
22.12.2015 03:42 11,4 C 11,7 C 10,0 C 94 % 0 lf 1021,8 hPa 0,0 l/m 0 min 0 min 0 W/m 29,3 km/h (5 Bft) 95,65 %
22.12.2015 03:44 11,4 C 11,7 C 10,0 C 94 % 0 lf 1021,7 hPa 0,0 l/m 0 min 0 min 0 W/m 29,3 km/h (5 Bft) 91,49 %
22.12.2015 03:46 11,4 C 11,7 C 10,0 C 94 % 0 lf 1021,5 hPa 0,0 l/m 0 min 0 min 0 W/m 31,4 km/h (5 Bft) 95,74 %
22.12.2015 03:48 11,4 C 11,7 C 10,0 C 94 % 0 lf 1021,5 hPa 0,0 l/m 0 min 0 min 0 W/m 25,1 km/h (4 Bft) 93,62 %
22.12.2015 03:50 11,4 C 11,7 C 10,0 C 94 % 1 lf 1021,6 hPa 0,0 l/m 0 min 0 min 0 W/m 23,0 km/h (4 Bft) 95,74 %
22.12.2015 03:52 11,4 C 11,1 C 10,0 C 94 % 1 lf 1021,5 hPa 0,0 l/m 0 min 0 min 0 W/m 29,3 km/h (5 Bft) 97,87 %
22.12.2015 03:54 11,4 C 11,1 C 10,0 C 94 % 0 lf 1021,5 hPa 0,0 l/m 0 min 0 min 0 W/m 29,3 km/h (5 Bft) 95,65 %
22.12.2015 03:56 11,3 C 11,1 C 10,0 C 94 % 0 lf 1021,5 hPa 0,0 l/m 0 min 0 min 0 W/m 27,2 km/h (4 Bft) 95,74 %
22.12.2015 03:58 11,3 C 11,1 C 10,0 C 94 % 0 lf 1021,4 hPa 0,0 l/m 0 min 0 min 0 W/m 23,0 km/h (4 Bft) 95,74 %
22.12.2015 04:00 11,3 C 11,1 C 10,0 C 94 % 0 lf 1021,5 hPa 0,0 l/m 0 min 0 min 0 W/m 27,2 km/h (4 Bft) 95,74 %
22.12.2015 04:02 11,3 C 11,1 C 10,0 C 94 % 0 lf 1021,5 hPa 0,0 l/m 0 min 0 min 0 W/m 18,8 km/h (3 Bft) 96,30 %
22.12.2015 04:04 11,3 C 11,1 C 10,0 C 94 % 0 lf 1021,6 hPa 0,0 l/m 0 min 0 min 0 W/m 16,7 km/h (3 Bft) 100,00 %
22.12.2015 04:06 11,3 C 11,1 C 10,0 C 94 % 0 lf 1021,6 hPa 0,0 l/m 0 min 0 min 0 W/m 25,1 km/h (4 Bft) 95,65 %
22.12.2015 04:08 11,3 C 11,7 C 10,0 C 94 % 0 lf 1021,6 hPa 0,0 l/m 0 min 0 min 0 W/m 31,4 km/h (5 Bft) 95,74 %
22.12.2015 04:10 11,3 C 11,7 C 10,0 C 94 % 0 lf 1021,7 hPa 0,0 l/m 0 min 0 min 0 W/m 29,3 km/h (5 Bft) 95,74 %
22.12.2015 04:12 11,3 C 11,7 C 10,0 C 94 % 0 lf 1021,6 hPa 0,0 l/m 0 min 0 min 0 W/m 27,2 km/h (4 Bft) 93,62 %
22.12.2015 04:14 11,3 C 11,7 C 10,0 C 94 % 0 lf 1021,6 hPa 0,0 l/m 0 min 0 min 0 W/m 29,3 km/h (5 Bft) 93,62 %
22.12.2015 04:16 11,3 C 11,7 C 10,0 C 94 % 0 lf 1021,6 hPa 0,0 l/m 0 min 0 min 0 W/m 27,2 km/h (4 Bft) 95,65 %
22.12.2015 04:18 11,3 C 11,7 C 10,0 C 94 % 0 lf 1021,6 hPa 0,0 l/m 0 min 0 min 0 W/m 20,9 km/h (4 Bft) 91,49 %
22.12.2015 04:20 11,3 C 11,7 C 10,0 C 94 % 0 lf 1021,5 hPa 0,0 l/m 0 min 0 min 0 W/m 29,3 km/h (5 Bft) 95,74 %
22.12.2015 04:22 11,2 C 11,7 C 10,0 C 94 % 2 lf 1021,6 hPa 0,0 l/m 0 min 0 min 0 W/m 25,1 km/h (4 Bft) 95,74 %
22.12.2015 04:24 11,2 C 11,7 C 10,0 C 94 % 3 lf 1021,6 hPa 0,0 l/m 0 min 2 min 0 W/m 25,1 km/h (4 Bft) 93,62 %
22.12.2015 04:26 11,3 C 11,7 C 10,0 C 94 % 3 lf 1021,6 hPa 0,0 l/m 0 min 2 min 0 W/m 27,2 km/h (4 Bft) 95,74 %
22.12.2015 04:28 11,3 C 11,7 C 10,0 C 94 % 2 lf 1021,5 hPa 0,0 l/m 0 min 0 min 0 W/m 20,9 km/h (4 Bft) 95,65 %
22.12.2015 04:30 11,3 C 11,7 C 9,4 C 94 % 1 lf 1021,5 hPa 0,0 l/m 0 min 0 min 0 W/m 20,9 km/h (4 Bft) 93,62 %
22.12.2015 04:32 11,3 C 11,7 C 9,4 C 94 % 1 lf 1021,5 hPa 0,0 l/m 0 min 0 min 0 W/m 14,6 km/h (3 Bft) 97,87 %
22.12.2015 04:34 11,3 C 11,7 C 9,4 C 94 % 1 lf 1021,4 hPa 0,0 l/m 0 min 0 min 0 W/m 27,2 km/h (4 Bft) 97,87 %
22.12.2015 04:36 11,3 C 11,7 C 9,4 C 94 % 2 lf 1021,4 hPa 0,0 l/m 0 min 2 min 0 W/m 31,4 km/h (5 Bft) 95,74 %
22.12.2015 04:38 11,3 C 11,7 C 9,4 C 94 % 2 lf 1021,5 hPa 0,0 l/m 0 min 2 min 0 W/m 27,2 km/h (4 Bft) 97,87 %
22.12.2015 04:40 11,3 C 11,7 C 9,4 C 94 % 1 lf 1021,4 hPa 0,0 l/m 0 min 2 min 0 W/m 25,1 km/h (4 Bft) 95,65 %
22.12.2015 04:42 11,3 C 11,1 C 9,4 C 94 % 1 lf 1021,4 hPa 0,0 l/m 0 min 2 min 0 W/m 20,9 km/h (4 Bft) 95,74 %
22.12.2015 04:44 11,3 C 11,1 C 9,4 C 94 % 3 lf 1021,5 hPa 0,0 l/m 0 min 2 min 0 W/m 27,2 km/h (4 Bft) 95,74 %
22.12.2015 04:46 11,3 C 11,1 C 9,4 C 94 % 6 lf 1021,5 hPa 0,0 l/m 0 min 2 min 0 W/m 27,2 km/h (4 Bft) 97,87 %
22.12.2015 04:48 11,3 C 11,1 C 9,4 C 94 % 15 lf 1021,5 hPa 0,0 l/m 0 min 2 min 0 W/m 23,0 km/h (4 Bft) 97,87 %
22.12.2015 04:50 11,3 C 11,1 C 9,4 C 94 % 15 lf 1021,5 hPa 0,0 l/m 0 min 2 min 0 W/m 33,5 km/h (5 Bft) 93,62 %
22.12.2015 04:52 11,3 C 10,6 C 9,4 C 94 % 15 lf 1021,4 hPa 0,0 l/m 0 min 2 min 0 W/m 31,4 km/h (5 Bft) 97,83 %
22.12.2015 04:54 11,3 C 10,6 C 9,4 C 94 % 15 lf 1021,3 hPa 0,0 l/m 0 min 2 min 0 W/m 31,4 km/h (5 Bft) 97,87 %
22.12.2015 04:56 11,3 C 10,6 C 9,4 C 94 % 15 lf 1021,3 hPa 0,0 l/m 0 min 2 min 0 W/m 25,1 km/h (4 Bft) 97,87 %
22.12.2015 04:58 11,3 C 10,6 C 9,4 C 94 % 15 lf 1021,3 hPa 0,0 l/m 0 min 2 min 0 W/m 23,0 km/h (4 Bft) 97,87 %
22.12.2015 05:00 11,3 C 10,6 C 9,4 C 94 % 15 lf 1021,3 hPa 0,2 l/m 0 min 2 min 0 W/m 16,7 km/h (3 Bft) 93,62 %
22.12.2015 05:02 11,3 C 10,6 C 9,4 C 94 % 15 lf 1021,3 hPa 0,0 l/m 0 min 2 min 0 W/m 23,0 km/h (4 Bft) 95,74 %
22.12.2015 05:04 11,3 C 10,6 C 9,4 C 94 % 15 lf 1021,4 hPa 0,0 l/m 0 min 2 min 0 W/m 20,9 km/h (4 Bft) 93,48 %
22.12.2015 05:06 11,3 C 10,6 C 9,4 C 94 % 15 lf 1021,3 hPa 0,0 l/m 0 min 2 min 0 W/m 29,3 km/h (5 Bft) 97,87 %
22.12.2015 05:08 11,3 C 10,6 C 9,4 C 94 % 15 lf 1021,3 hPa 0,0 l/m 0 min 2 min 0 W/m 27,2 km/h (4 Bft) 95,74 %
22.12.2015 05:10 11,2 C 10,6 C 9,4 C 94 % 15 lf 1021,3 hPa 0,0 l/m 0 min 2 min 0 W/m 23,0 km/h (4 Bft) 91,49 %
22.12.2015 05:12 11,2 C 10,6 C 9,4 C 94 % 15 lf 1021,3 hPa 0,0 l/m 0 min 2 min 0 W/m 23,0 km/h (4 Bft) 93,62 %
22.12.2015 05:14 11,2 C 10,6 C 9,4 C 94 % 15 lf 1021,3 hPa 0,2 l/m 0 min 2 min 0 W/m 25,1 km/h (4 Bft) 97,87 %
22.12.2015 05:16 11,2 C 10,6 C 9,4 C 94 % 15 lf 1021,3 hPa 0,0 l/m 0 min 2 min 0 W/m 37,7 km/h (5 Bft) 95,65 %
22.12.2015 05:18 11,2 C 10,6 C 9,4 C 94 % 15 lf 1021,2 hPa 0,0 l/m 0 min 2 min 0 W/m 27,2 km/h (4 Bft) 91,49 %
22.12.2015 05:20 11,2 C 10,6 C 9,4 C 94 % 15 lf 1021,1 hPa 0,0 l/m 0 min 2 min 0 W/m 27,2 km/h (4 Bft) 93,62 %
22.12.2015 05:22 11,2 C 10,6 C 9,4 C 94 % 15 lf 1021,1 hPa 0,0 l/m 0 min 2 min 0 W/m 18,8 km/h (3 Bft) 97,87 %
22.12.2015 05:24 11,2 C 10,6 C 9,4 C 94 % 15 lf 1021,2 hPa 0,2 l/m 0 min 2 min 0 W/m 20,9 km/h (4 Bft) 93,62 %
22.12.2015 05:26 11,2 C 10,6 C 9,4 C 94 % 15 lf 1021,1 hPa 0,0 l/m 0 min 2 min 0 W/m 23,0 km/h (4 Bft) 91,49 %
22.12.2015 05:28 11,1 C 10,6 C 9,4 C 94 % 15 lf 1021,2 hPa 0,2 l/m 0 min 2 min 0 W/m 27,2 km/h (4 Bft) 91,30 %
22.12.2015 05:30 11,1 C 10,6 C 9,4 C 94 % 15 lf 1021,3 hPa 0,0 l/m 0 min 2 min 0 W/m 43,9 km/h (6 Bft) 93,62 %
22.12.2015 05:32 11,1 C 10,6 C 9,4 C 95 % 15 lf 1021,3 hPa 0,2 l/m 0 min 2 min 0 W/m 25,1 km/h (4 Bft) 93,75 %
22.12.2015 05:34 11,1 C 10,6 C 9,4 C 95 % 15 lf 1021,4 hPa 0,2 l/m 0 min 2 min 0 W/m 37,7 km/h (5 Bft) 95,74 %
22.12.2015 05:36 11,1 C 10,6 C 9,4 C 95 % 15 lf 1021,2 hPa 0,0 l/m 0 min 2 min 0 W/m 37,7 km/h (5 Bft) 93,62 %
22.12.2015 05:38 11,1 C 10,6 C 9,4 C 95 % 15 lf 1021,2 hPa 0,2 l/m 0 min 2 min 0 W/m 29,3 km/h (5 Bft) 95,65 %
22.12.2015 05:40 11,1 C 10,6 C 9,4 C 95 % 15 lf 1021,1 hPa 0,0 l/m 0 min 2 min 0 W/m 31,4 km/h (5 Bft) 97,87 %
22.12.2015 05:42 11,1 C 10,6 C 9,4 C 95 % 15 lf 1021,0 hPa 0,2 l/m 0 min 2 min 0 W/m 29,3 km/h (5 Bft) 95,74 %
22.12.2015 05:44 11,0 C 10,6 C 9,4 C 95 % 15 lf 1021,1 hPa 0,2 l/m 0 min 2 min 0 W/m 27,2 km/h (4 Bft) 97,87 %
22.12.2015 05:46 11,0 C 10,6 C 9,4 C 95 % 15 lf 1021,1 hPa 0,2 l/m 0 min 2 min 0 W/m 31,4 km/h (5 Bft) 97,87 %
22.12.2015 05:48 11,0 C 10,6 C 9,4 C 95 % 15 lf 1021,0 hPa 0,0 l/m 0 min 2 min 0 W/m 31,4 km/h (5 Bft) 95,74 %
22.12.2015 05:50 10,9 C 10,6 C 9,4 C 95 % 15 lf 1021,0 hPa 0,0 l/m 0 min 2 min 0 W/m 37,7 km/h (5 Bft) 95,65 %
22.12.2015 05:52 10,9 C 10,6 C 9,4 C 95 % 15 lf 1021,0 hPa 0,2 l/m 0 min 2 min 0 W/m 25,1 km/h (4 Bft) 95,74 %
22.12.2015 05:54 10,9 C 10,6 C 9,4 C 95 % 15 lf 1020,9 hPa 0,2 l/m 0 min 2 min 0 W/m 29,3 km/h (5 Bft) 93,62 %
22.12.2015 05:56 10,9 C 10,6 C 8,9 C 95 % 15 lf 1020,8 hPa 0,0 l/m 0 min 2 min 0 W/m 31,4 km/h (5 Bft) 95,74 %
22.12.2015 05:58 10,9 C 10,6 C 8,9 C 95 % 15 lf 1020,8 hPa 0,0 l/m 0 min 2 min 0 W/m 29,3 km/h (5 Bft) 93,62 %
22.12.2015 06:00 10,9 C 10,6 C 8,9 C 95 % 15 lf 1020,8 hPa 0,0 l/m 0 min 2 min 0 W/m 31,4 km/h (5 Bft) 95,74 %
22.12.2015 06:02 10,9 C 10,6 C 8,9 C 95 % 15 lf 1020,7 hPa 0,2 l/m 0 min 2 min 0 W/m 23,0 km/h (4 Bft) 95,65 %
22.12.2015 06:06 10,8 C 10,6 C 8,9 C 95 % 15 lf 1020,7 hPa 0,0 l/m 0 min 2 min 0 W/m 31,4 km/h (5 Bft) 93,68 %
22.12.2015 06:08 10,8 C 10,6 C 8,9 C 96 % 15 lf 1020,8 hPa 0,0 l/m 0 min 2 min 0 W/m 23,0 km/h (4 Bft) 97,87 %
22.12.2015 06:10 10,8 C 10,6 C 8,9 C 96 % 15 lf 1020,8 hPa 0,0 l/m 0 min 2 min 0 W/m 25,1 km/h (4 Bft) 95,74 %
22.12.2015 06:12 10,8 C 10,6 C 8,9 C 95 % 15 lf 1020,8 hPa 0,0 l/m 0 min 0 min 0 W/m 23,0 km/h (4 Bft) 97,87 %
22.12.2015 06:14 10,8 C 10,0 C 8,9 C 95 % 15 lf 1020,8 hPa 0,0 l/m 0 min 0 min 0 W/m 23,0 km/h (4 Bft) 95,65 %
22.12.2015 06:16 10,8 C 10,6 C 8,9 C 95 % 15 lf 1020,8 hPa 0,0 l/m 0 min 0 min 0 W/m 31,4 km/h (5 Bft) 97,87 %
22.12.2015 06:18 10,8 C 10,6 C 8,9 C 96 % 15 lf 1021,0 hPa 0,0 l/m 0 min 0 min 0 W/m 29,3 km/h (5 Bft) 95,74 %
22.12.2015 06:20 10,8 C 10,6 C 8,9 C 96 % 15 lf 1021,1 hPa 0,0 l/m 0 min 0 min 0 W/m 31,4 km/h (5 Bft) 97,87 %
22.12.2015 06:22 10,8 C 10,6 C 8,9 C 96 % 15 lf 1021,0 hPa 0,0 l/m 0 min 0 min 0 W/m 29,3 km/h (5 Bft) 100,00 %
22.12.2015 06:24 10,8 C 10,6 C 8,9 C 96 % 15 lf 1021,0 hPa 0,0 l/m 0 min 0 min 0 W/m 25,1 km/h (4 Bft) 97,83 %
22.12.2015 06:26 10,8 C 10,6 C 8,9 C 96 % 15 lf 1021,0 hPa 0,0 l/m 0 min 0 min 0 W/m 20,9 km/h (4 Bft) 97,87 %
22.12.2015 06:28 10,8 C 10,6 C 8,9 C 96 % 15 lf 1021,0 hPa 0,0 l/m 0 min 2 min 0 W/m 27,2 km/h (4 Bft) 97,87 %
22.12.2015 06:30 10,8 C 10,6 C 8,9 C 96 % 15 lf 1020,9 hPa 0,0 l/m 0 min 2 min 0 W/m 23,0 km/h (4 Bft) 97,87 %
22.12.2015 06:32 10,8 C 10,6 C 8,9 C 96 % 15 lf 1020,9 hPa 0,0 l/m 0 min 2 min 0 W/m 31,4 km/h (5 Bft) 95,74 %
22.12.2015 06:34 10,7 C 10,6 C 8,9 C 96 % 15 lf 1021,0 hPa 0,0 l/m 0 min 0 min 0 W/m 33,5 km/h (5 Bft) 95,74 %
22.12.2015 06:36 10,7 C 10,6 C 8,9 C 96 % 15 lf 1021,0 hPa 0,0 l/m 0 min 2 min 0 W/m 25,1 km/h (4 Bft) 97,83 %
22.12.2015 06:38 10,7 C 10,6 C 8,9 C 96 % 15 lf 1020,9 hPa 0,2 l/m 0 min 2 min 0 W/m 31,4 km/h (5 Bft) 97,87 %
22.12.2015 06:40 10,7 C 10,6 C 8,9 C 96 % 15 lf 1020,9 hPa 0,0 l/m 0 min 2 min 0 W/m 20,9 km/h (4 Bft) 97,87 %
22.12.2015 06:42 10,7 C 10,6 C 8,9 C 96 % 15 lf 1020,9 hPa 0,0 l/m 0 min 2 min 0 W/m 35,6 km/h (5 Bft) 95,74 %
22.12.2015 06:44 10,7 C 10,6 C 8,9 C 96 % 15 lf 1020,9 hPa 0,0 l/m 0 min 2 min 0 W/m 31,4 km/h (5 Bft) 95,74 %
22.12.2015 06:46 10,7 C 10,6 C 8,9 C 96 % 15 lf 1020,9 hPa 0,0 l/m 0 min 2 min 0 W/m 31,4 km/h (5 Bft) 97,87 %
22.12.2015 06:48 10,7 C 10,6 C 8,9 C 96 % 15 lf 1020,8 hPa 0,0 l/m 0 min 2 min 0 W/m 27,2 km/h (4 Bft) 95,65 %
22.12.2015 06:50 10,7 C 10,6 C 8,9 C 96 % 15 lf 1020,8 hPa 0,0 l/m 0 min 2 min 0 W/m 23,0 km/h (4 Bft) 97,87 %
22.12.2015 06:52 10,7 C 10,6 C 8,9 C 96 % 15 lf 1020,8 hPa 0,0 l/m 0 min 2 min 0 W/m 29,3 km/h (5 Bft) 97,87 %
22.12.2015 06:54 10,7 C 10,6 C 8,9 C 96 % 15 lf 1020,9 hPa 0,0 l/m 0 min 2 min 0 W/m 37,7 km/h (5 Bft) 95,74 %
22.12.2015 06:56 10,7 C 10,6 C 8,9 C 96 % 15 lf 1020,8 hPa 0,0 l/m 0 min 2 min 0 W/m 41,8 km/h (6 Bft) 97,87 %
22.12.2015 06:58 10,7 C 10,6 C 8,9 C 96 % 15 lf 1020,8 hPa 0,0 l/m 0 min 2 min 0 W/m 35,6 km/h (5 Bft) 95,74 %
22.12.2015 07:00 10,7 C 10,6 C 8,9 C 96 % 15 lf 1020,8 hPa 0,0 l/m 0 min 2 min 0 W/m 31,4 km/h (5 Bft) 93,48 %
22.12.2015 07:02 10,7 C 10,6 C 8,9 C 96 % 15 lf 1020,9 hPa 0,0 l/m 0 min 2 min 0 W/m 27,2 km/h (4 Bft) 95,74 %
22.12.2015 07:04 10,7 C 10,6 C 8,9 C 96 % 15 lf 1020,9 hPa 0,0 l/m 0 min 2 min 0 W/m 27,2 km/h (4 Bft) 91,49 %
22.12.2015 07:06 10,7 C 10,6 C 8,9 C 96 % 15 lf 1020,8 hPa 0,0 l/m 0 min 0 min 0 W/m 20,9 km/h (4 Bft) 95,74 %
22.12.2015 07:08 10,7 C 10,6 C 8,9 C 96 % 15 lf 1020,8 hPa 0,0 l/m 0 min 0 min 0 W/m 20,9 km/h (4 Bft) 93,62 %
22.12.2015 07:10 10,7 C 10,6 C 8,9 C 96 % 15 lf 1020,8 hPa 0,0 l/m 0 min 2 min 0 W/m 39,7 km/h (6 Bft) 95,74 %
22.12.2015 07:12 10,7 C 10,6 C 8,9 C 96 % 15 lf 1020,8 hPa 0,0 l/m 0 min 2 min 0 W/m 27,2 km/h (4 Bft) 93,48 %
22.12.2015 07:14 10,7 C 10,6 C 8,9 C 96 % 15 lf 1020,8 hPa 0,0 l/m 0 min 2 min 0 W/m 39,7 km/h (6 Bft) 95,74 %
22.12.2015 07:16 10,8 C 10,6 C 8,9 C 96 % 15 lf 1020,7 hPa 0,0 l/m 0 min 2 min 0 W/m 16,7 km/h (3 Bft) 95,74 %
22.12.2015 07:18 10,8 C 10,6 C 8,9 C 96 % 15 lf 1020,8 hPa 0,0 l/m 0 min 0 min 0 W/m 29,3 km/h (5 Bft) 97,87 %
22.12.2015 07:20 10,8 C 10,6 C 8,9 C 96 % 15 lf 1020,8 hPa 0,0 l/m 0 min 2 min 0 W/m 39,7 km/h (6 Bft) 95,74 %
22.12.2015 07:22 10,8 C 10,6 C 8,9 C 96 % 14 lf 1020,7 hPa 0,0 l/m 0 min 2 min 0 W/m 37,7 km/h (5 Bft) 97,87 %
22.12.2015 07:24 10,8 C 10,6 C 8,9 C 96 % 14 lf 1020,7 hPa 0,0 l/m 0 min 0 min 0 W/m 27,2 km/h (4 Bft) 93,48 %
22.12.2015 07:26 10,8 C 10,6 C 8,9 C 96 % 14 lf 1020,7 hPa 0,0 l/m 0 min 0 min 0 W/m 16,7 km/h (3 Bft) 97,87 %
22.12.2015 07:28 10,8 C 10,6 C 8,9 C 96 % 13 lf 1020,9 hPa 0,0 l/m 0 min 0 min 0 W/m 37,7 km/h (5 Bft) 100,00 %
22.12.2015 07:30 10,8 C 10,6 C 8,9 C 96 % 12 lf 1020,8 hPa 0,0 l/m 0 min 0 min 0 W/m 25,1 km/h (4 Bft) 97,87 %
22.12.2015 07:32 10,8 C 10,6 C 8,9 C 96 % 12 lf 1020,7 hPa 0,0 l/m 0 min 0 min 0 W/m 25,1 km/h (4 Bft) 100,00 %
22.12.2015 07:34 10,8 C 10,6 C 8,9 C 96 % 11 lf 1020,7 hPa 0,0 l/m 0 min 0 min 0 W/m 25,1 km/h (4 Bft) 93,62 %
22.12.2015 07:36 10,8 C 10,6 C 8,9 C 95 % 9 lf 1020,6 hPa 0,0 l/m 0 min 0 min 0 W/m 27,2 km/h (4 Bft) 100,00 %
22.12.2015 07:38 10,8 C 10,6 C 8,9 C 96 % 9 lf 1020,7 hPa 0,0 l/m 0 min 2 min 0 W/m 31,4 km/h (5 Bft) 100,00 %
22.12.2015 07:40 10,9 C 10,6 C 8,9 C 96 % 7 lf 1020,6 hPa 0,0 l/m 0 min 0 min 0 W/m 29,3 km/h (5 Bft) 100,00 %
22.12.2015 07:42 10,9 C 10,6 C 8,9 C 96 % 6 lf 1020,7 hPa 0,0 l/m 0 min 2 min 0 W/m 23,0 km/h (4 Bft) 93,62 %
22.12.2015 07:44 10,9 C 10,6 C 8,9 C 95 % 4 lf 1020,6 hPa 0,0 l/m 0 min 0 min 0 W/m 18,8 km/h (3 Bft) 97,87 %
22.12.2015 07:46 10,9 C 10,6 C 8,9 C 95 % 4 lf 1020,7 hPa 0,0 l/m 0 min 0 min 0 W/m 27,2 km/h (4 Bft) 100,00 %
22.12.2015 07:48 10,9 C 10,6 C 8,9 C 95 % 4 lf 1020,8 hPa 0,0 l/m 0 min 2 min 0 W/m 37,7 km/h (5 Bft) 100,00 %
22.12.2015 07:50 10,9 C 10,6 C 8,9 C 95 % 4 lf 1020,6 hPa 0,0 l/m 0 min 2 min 0 W/m 25,1 km/h (4 Bft) 100,00 %
22.12.2015 07:52 10,9 C 10,6 C 8,9 C 95 % 3 lf 1020,4 hPa 0,0 l/m 0 min 0 min 0 W/m 35,6 km/h (5 Bft) 95,74 %
22.12.2015 07:54 11,0 C 10,6 C 9,4 C 95 % 3 lf 1020,7 hPa 0,0 l/m 0 min 0 min 0 W/m 37,7 km/h (5 Bft) 100,00 %
22.12.2015 07:56 11,0 C 10,6 C 9,4 C 95 % 3 lf 1020,6 hPa 0,0 l/m 0 min 2 min 0 W/m 33,5 km/h (5 Bft) 97,87 %
22.12.2015 07:58 11,0 C 10,6 C 9,4 C 95 % 2 lf 1020,7 hPa 0,0 l/m 0 min 0 min 0 W/m 27,2 km/h (4 Bft) 100,00 %
22.12.2015 08:00 11,0 C 10,6 C 9,4 C 95 % 1 lf 1020,7 hPa 0,0 l/m 0 min 0 min 0 W/m 27,2 km/h (4 Bft) 100,00 %
22.12.2015 08:02 11,0 C 10,6 C 9,4 C 95 % 1 lf 1020,7 hPa 0,0 l/m 0 min 2 min 0 W/m 29,3 km/h (5 Bft) 97,87 %
22.12.2015 08:04 11,1 C 10,6 C 9,4 C 95 % 1 lf 1020,6 hPa 0,0 l/m 0 min 0 min 0 W/m 25,1 km/h (4 Bft) 97,87 %
22.12.2015 08:06 11,1 C 10,6 C 9,4 C 95 % 2 lf 1020,8 hPa 0,0 l/m 0 min 0 min 0 W/m 29,3 km/h (5 Bft) 95,74 %
22.12.2015 08:08 11,1 C 10,6 C 9,4 C 95 % 2 lf 1020,7 hPa 0,0 l/m 0 min 2 min 0 W/m 29,3 km/h (5 Bft) 93,62 %
22.12.2015 08:10 11,1 C 10,6 C 9,4 C 95 % 1 lf 1020,8 hPa 0,0 l/m 0 min 2 min 0 W/m 31,4 km/h (5 Bft) 97,83 %
22.12.2015 08:12 11,1 C 10,6 C 9,4 C 95 % 1 lf 1020,7 hPa 0,0 l/m 0 min 2 min 0 W/m 35,6 km/h (5 Bft) 95,74 %
22.12.2015 08:14 11,1 C 10,6 C 9,4 C 95 % 0 lf 1020,8 hPa 0,0 l/m 0 min 2 min 0 W/m 35,6 km/h (5 Bft) 95,74 %
22.12.2015 08:16 11,1 C 10,6 C 9,4 C 95 % 0 lf 1020,8 hPa 0,0 l/m 0 min 2 min 0 W/m 35,6 km/h (5 Bft) 91,49 %
22.12.2015 08:18 11,1 C 10,6 C 9,4 C 95 % 0 lf 1020,8 hPa 0,0 l/m 0 min 2 min 0 W/m 20,9 km/h (4 Bft) 93,62 %
22.12.2015 08:20 11,1 C 10,6 C 9,4 C 94 % 0 lf 1020,8 hPa 0,0 l/m 0 min 0 min 0 W/m 25,1 km/h (4 Bft) 91,49 %
22.12.2015 08:22 11,1 C 10,6 C 9,4 C 94 % 0 lf 1020,8 hPa 0,0 l/m 0 min 0 min 0 W/m 29,3 km/h (5 Bft) 91,30 %
22.12.2015 08:24 11,1 C 10,6 C 9,4 C 94 % 0 lf 1020,8 hPa 0,0 l/m 0 min 0 min 0 W/m 27,2 km/h (4 Bft) 93,62 %
22.12.2015 08:26 11,1 C 10,6 C 9,4 C 94 % 0 lf 1020,8 hPa 0,0 l/m 0 min 0 min 0 W/m 29,3 km/h (5 Bft) 95,74 %
22.12.2015 08:28 11,1 C 10,6 C 9,4 C 94 % 0 lf 1020,8 hPa 0,0 l/m 0 min 0 min 0 W/m 25,1 km/h (4 Bft) 95,74 %
22.12.2015 08:30 11,1 C 10,6 C 9,4 C 94 % 0 lf 1020,9 hPa 0,0 l/m 0 min 0 min 0 W/m 25,1 km/h (4 Bft) 93,62 %
22.12.2015 08:32 11,1 C 10,6 C 9,4 C 94 % 0 lf 1020,9 hPa 0,0 l/m 0 min 0 min 0 W/m 27,2 km/h (4 Bft) 93,62 %
22.12.2015 08:34 11,1 C 10,6 C 9,4 C 94 % 0 lf 1020,8 hPa 0,0 l/m 0 min 0 min 0 W/m 23,0 km/h (4 Bft) 89,13 %
22.12.2015 08:36 11,1 C 10,6 C 9,4 C 94 % 0 lf 1020,8 hPa 0,0 l/m 0 min 0 min 0 W/m 20,9 km/h (4 Bft) 94,00 %
22.12.2015 08:38 11,1 C 10,6 C 9,4 C 94 % 0 lf 1020,8 hPa 0,0 l/m 0 min 0 min 0 W/m 31,4 km/h (5 Bft) 93,62 %
22.12.2015 08:40 11,1 C 10,6 C 9,4 C 94 % 0 lf 1020,8 hPa 0,0 l/m 0 min 0 min 0 W/m 39,7 km/h (6 Bft) 95,65 %
22.12.2015 08:42 11,1 C 10,6 C 9,4 C 94 % 0 lf 1020,7 hPa 0,0 l/m 0 min 0 min 0 W/m 20,9 km/h (4 Bft) 93,62 %
22.12.2015 08:44 11,1 C 10,6 C 9,4 C 94 % 0 lf 1020,8 hPa 0,0 l/m 0 min 0 min 3 W/m 29,3 km/h (5 Bft) 93,62 %
22.12.2015 08:46 11,1 C 10,6 C 9,4 C 94 % 0 lf 1020,7 hPa 0,0 l/m 0 min 0 min 5 W/m 16,7 km/h (3 Bft) 95,74 %
22.12.2015 08:48 11,1 C 10,6 C 9,4 C 94 % 0 lf 1020,8 hPa 0,0 l/m 0 min 0 min 5 W/m 20,9 km/h (4 Bft) 89,36 %
22.12.2015 08:50 11,1 C 10,6 C 9,4 C 94 % 0 lf 1020,9 hPa 0,0 l/m 0 min 0 min 5 W/m 29,3 km/h (5 Bft) 91,49 %
22.12.2015 08:52 11,1 C 10,6 C 9,4 C 94 % 0 lf 1020,9 hPa 0,0 l/m 0 min 0 min 5 W/m 20,9 km/h (4 Bft) 91,30 %
22.12.2015 08:54 11,1 C 10,6 C 9,4 C 94 % 0 lf 1020,9 hPa 0,0 l/m 0 min 0 min 5 W/m 27,2 km/h (4 Bft) 93,62 %
22.12.2015 08:56 11,1 C 10,6 C 9,4 C 94 % 0 lf 1020,8 hPa 0,0 l/m 0 min 0 min 5 W/m 39,7 km/h (6 Bft) 95,74 %
22.12.2015 08:58 11,1 C 10,6 C 9,4 C 94 % 0 lf 1020,9 hPa 0,0 l/m 0 min 0 min 7 W/m 23,0 km/h (4 Bft) 93,62 %
22.12.2015 09:00 11,1 C 10,6 C 9,4 C 95 % 0 lf 1020,8 hPa 0,0 l/m 0 min 0 min 7 W/m 23,0 km/h (4 Bft) 91,49 %
22.12.2015 09:02 11,1 C 10,6 C 9,4 C 95 % 0 lf 1020,8 hPa 0,0 l/m 0 min 0 min 7 W/m 33,5 km/h (5 Bft) 87,23 %
22.12.2015 09:04 11,1 C 10,6 C 9,4 C 95 % 0 lf 1020,8 hPa 0,0 l/m 0 min 0 min 9 W/m 25,1 km/h (4 Bft) 95,65 %
22.12.2015 09:06 11,1 C 10,6 C 9,4 C 95 % 0 lf 1020,8 hPa 0,0 l/m 0 min 0 min 10 W/m 29,3 km/h (5 Bft) 93,62 %
22.12.2015 09:08 11,1 C 10,6 C 9,4 C 95 % 0 lf 1020,6 hPa 0,0 l/m 0 min 0 min 11 W/m 27,2 km/h (4 Bft) 93,62 %
22.12.2015 09:10 11,1 C 10,6 C 9,4 C 95 % 0 lf 1020,6 hPa 0,0 l/m 0 min 0 min 11 W/m 18,8 km/h (3 Bft) 93,62 %
22.12.2015 09:12 11,1 C 11,1 C 9,4 C 95 % 0 lf 1020,7 hPa 0,0 l/m 0 min 0 min 11 W/m 20,9 km/h (4 Bft) 95,74 %
22.12.2015 09:14 11,2 C 11,1 C 9,4 C 95 % 0 lf 1020,5 hPa 0,0 l/m 0 min 0 min 12 W/m 33,5 km/h (5 Bft) 93,62 %
22.12.2015 09:16 11,2 C 11,1 C 9,4 C 95 % 0 lf 1020,6 hPa 0,0 l/m 0 min 0 min 13 W/m 37,7 km/h (5 Bft) 91,30 %
22.12.2015 09:18 11,2 C 11,1 C 9,4 C 95 % 0 lf 1020,6 hPa 0,0 l/m 0 min 0 min 15 W/m 31,4 km/h (5 Bft) 95,74 %
22.12.2015 09:20 11,2 C 11,1 C 9,4 C 95 % 0 lf 1020,6 hPa 0,0 l/m 0 min 0 min 16 W/m 35,6 km/h (5 Bft) 95,74 %
22.12.2015 09:22 11,2 C 11,1 C 9,4 C 95 % 0 lf 1020,6 hPa 0,0 l/m 0 min 0 min 17 W/m 29,3 km/h (5 Bft) 97,87 %
22.12.2015 09:24 11,2 C 11,1 C 9,4 C 95 % 0 lf 1020,6 hPa 0,0 l/m 0 min 0 min 18 W/m 33,5 km/h (5 Bft) 97,87 %
22.12.2015 09:26 11,3 C 11,1 C 9,4 C 94 % 0 lf 1020,7 hPa 0,0 l/m 0 min 0 min 20 W/m 39,7 km/h (6 Bft) 97,87 %
22.12.2015 09:28 11,3 C 11,1 C 9,4 C 94 % 0 lf 1020,7 hPa 0,0 l/m 0 min 0 min 19 W/m 39,7 km/h (6 Bft) 97,83 %
22.12.2015 09:30 11,3 C 11,1 C 9,4 C 94 % 0 lf 1020,7 hPa 0,0 l/m 0 min 0 min 22 W/m 33,5 km/h (5 Bft) 93,62 %
22.12.2015 09:32 11,4 C 11,1 C 9,4 C 94 % 0 lf 1020,8 hPa 0,0 l/m 0 min 0 min 25 W/m 33,5 km/h (5 Bft) 97,87 %
22.12.2015 09:34 11,4 C 11,1 C 9,4 C 94 % 0 lf 1020,8 hPa 0,0 l/m 0 min 0 min 28 W/m 33,5 km/h (5 Bft) 95,74 %
22.12.2015 09:36 11,4 C 11,1 C 9,4 C 94 % 0 lf 1020,8 hPa 0,0 l/m 0 min 0 min 32 W/m 33,5 km/h (5 Bft) 95,74 %
22.12.2015 09:38 11,5 C 11,1 C 9,4 C 94 % 0 lf 1020,8 hPa 0,0 l/m 0 min 0 min 31 W/m 31,4 km/h (5 Bft) 97,87 %
22.12.2015 09:40 11,5 C 11,7 C 9,4 C 94 % 0 lf 1020,9 hPa 0,0 l/m 0 min 0 min 32 W/m 31,4 km/h (5 Bft) 95,65 %
22.12.2015 09:42 11,6 C 11,7 C 9,4 C 94 % 0 lf 1020,8 hPa 0,0 l/m 0 min 0 min 37 W/m 37,7 km/h (5 Bft) 95,74 %
22.12.2015 09:44 11,6 C 11,7 C 9,4 C 93 % 0 lf 1020,9 hPa 0,0 l/m 0 min 0 min 43 W/m 35,6 km/h (5 Bft) 97,87 %
22.12.2015 09:46 11,7 C 11,7 C 9,4 C 93 % 0 lf 1020,8 hPa 0,0 l/m 0 min 0 min 46 W/m 29,3 km/h (5 Bft) 93,62 %
22.12.2015 09:48 11,7 C 12,2 C 9,4 C 93 % 0 lf 1020,8 hPa 0,0 l/m 0 min 0 min 39 W/m 35,6 km/h (5 Bft) 93,62 %
22.12.2015 09:50 11,7 C 12,2 C 10,0 C 93 % 0 lf 1020,9 hPa 0,0 l/m 0 min 0 min 38 W/m 35,6 km/h (5 Bft) 95,74 %
22.12.2015 09:52 11,8 C 12,2 C 10,0 C 93 % 0 lf 1020,9 hPa 0,0 l/m 0 min 0 min 39 W/m 33,5 km/h (5 Bft) 97,83 %
22.12.2015 09:54 11,8 C 12,8 C 10,0 C 92 % 0 lf 1020,9 hPa 0,0 l/m 0 min 0 min 41 W/m 29,3 km/h (5 Bft) 97,87 %
22.12.2015 09:56 11,8 C 12,8 C 10,0 C 92 % 0 lf 1020,9 hPa 0,0 l/m 0 min 0 min 47 W/m 27,2 km/h (4 Bft) 97,87 %
22.12.2015 09:58 11,9 C 12,8 C 10,0 C 92 % 0 lf 1020,9 hPa 0,0 l/m 0 min 0 min 48 W/m 29,3 km/h (5 Bft) 97,87 %
22.12.2015 10:00 11,9 C 12,8 C 10,0 C 92 % 0 lf 1020,8 hPa 0,0 l/m 0 min 0 min 56 W/m 31,4 km/h (5 Bft) 100,00 %
22.12.2015 10:02 11,9 C 12,8 C 10,0 C 92 % 0 lf 1020,9 hPa 0,0 l/m 0 min 0 min 68 W/m 33,5 km/h (5 Bft) 97,83 %
22.12.2015 10:04 12,0 C 12,8 C 10,0 C 92 % 0 lf 1020,9 hPa 0,0 l/m 0 min 0 min 65 W/m 31,4 km/h (5 Bft) 100,00 %
22.12.2015 10:06 12,0 C 12,8 C 10,0 C 91 % 0 lf 1021,0 hPa 0,0 l/m 0 min 0 min 54 W/m 37,7 km/h (5 Bft) 100,00 %
22.12.2015 10:08 12,1 C 12,8 C 10,0 C 92 % 0 lf 1020,9 hPa 0,0 l/m 0 min 0 min 38 W/m 43,9 km/h (6 Bft) 97,87 %
22.12.2015 10:10 12,1 C 12,8 C 10,0 C 91 % 0 lf 1020,9 hPa 0,0 l/m 0 min 0 min 38 W/m 33,5 km/h (5 Bft) 100,00 %
22.12.2015 10:12 12,1 C 12,8 C 10,0 C 91 % 0 lf 1021,0 hPa 0,0 l/m 0 min 0 min 34 W/m 37,7 km/h (5 Bft) 100,00 %
22.12.2015 10:14 12,2 C 12,8 C 10,0 C 91 % 0 lf 1020,9 hPa 0,0 l/m 0 min 0 min 33 W/m 37,7 km/h (5 Bft) 97,87 %
22.12.2015 10:16 12,2 C 12,8 C 10,0 C 90 % 0 lf 1021,0 hPa 0,0 l/m 0 min 0 min 28 W/m 35,6 km/h (5 Bft) 97,87 %
22.12.2015 10:18 12,2 C 12,8 C 10,0 C 90 % 0 lf 1021,0 hPa 0,0 l/m 0 min 0 min 29 W/m 31,4 km/h (5 Bft) 97,83 %
22.12.2015 10:20 12,2 C 12,8 C 10,0 C 90 % 0 lf 1020,9 hPa 0,0 l/m 0 min 0 min 31 W/m 41,8 km/h (6 Bft) 100,00 %
22.12.2015 10:22 12,2 C 12,8 C 10,0 C 90 % 0 lf 1020,9 hPa 0,0 l/m 0 min 0 min 36 W/m 23,0 km/h (4 Bft) 97,87 %
22.12.2015 10:24 12,2 C 12,8 C 10,0 C 90 % 0 lf 1021,0 hPa 0,0 l/m 0 min 0 min 36 W/m 27,2 km/h (4 Bft) 97,87 %
22.12.2015 10:26 12,3 C 12,8 C 10,0 C 90 % 0 lf 1021,0 hPa 0,0 l/m 0 min 0 min 35 W/m 31,4 km/h (5 Bft) 95,74 %
22.12.2015 10:28 12,3 C 12,8 C 10,0 C 90 % 0 lf 1021,0 hPa 0,0 l/m 0 min 0 min 33 W/m 29,3 km/h (5 Bft) 97,87 %
22.12.2015 10:30 12,3 C 12,8 C 10,0 C 90 % 0 lf 1021,0 hPa 0,0 l/m 0 min 0 min 32 W/m 33,5 km/h (5 Bft) 100,00 %
22.12.2015 10:32 12,3 C 12,8 C 10,0 C 90 % 0 lf 1021,0 hPa 0,0 l/m 0 min 0 min 34 W/m 29,3 km/h (5 Bft) 97,87 %
22.12.2015 10:34 12,3 C 12,8 C 10,0 C 90 % 0 lf 1020,9 hPa 0,0 l/m 0 min 0 min 33 W/m 29,3 km/h (5 Bft) 100,00 %
22.12.2015 10:36 12,3 C 12,8 C 10,0 C 89 % 0 lf 1021,0 hPa 0,0 l/m 0 min 0 min 34 W/m 35,6 km/h (5 Bft) 97,87 %
22.12.2015 10:38 12,4 C 12,8 C 10,0 C 89 % 0 lf 1021,0 hPa 0,0 l/m 0 min 0 min 48 W/m 37,7 km/h (5 Bft) 95,74 %
22.12.2015 10:40 12,4 C 12,8 C 10,0 C 89 % 0 lf 1021,0 hPa 0,0 l/m 0 min 0 min 56 W/m 31,4 km/h (5 Bft) 95,65 %
22.12.2015 10:42 12,4 C 12,8 C 10,0 C 89 % 0 lf 1020,9 hPa 0,0 l/m 0 min 0 min 58 W/m 35,6 km/h (5 Bft) 91,49 %
22.12.2015 10:44 12,4 C 12,8 C 10,0 C 89 % 0 lf 1020,9 hPa 0,0 l/m 0 min 0 min 62 W/m 35,6 km/h (5 Bft) 93,62 %
22.12.2015 10:46 12,4 C 12,8 C 10,0 C 89 % 0 lf 1020,9 hPa 0,0 l/m 0 min 0 min 58 W/m 37,7 km/h (5 Bft) 97,87 %
22.12.2015 10:48 12,5 C 12,8 C 10,0 C 89 % 0 lf 1020,9 hPa 0,0 l/m 0 min 0 min 49 W/m 33,5 km/h (5 Bft) 95,74 %
22.12.2015 10:50 12,5 C 12,8 C 10,0 C 89 % 0 lf 1020,9 hPa 0,0 l/m 0 min 0 min 39 W/m 37,7 km/h (5 Bft) 95,74 %
22.12.2015 10:52 12,5 C 12,8 C 10,0 C 89 % 0 lf 1021,1 hPa 0,0 l/m 0 min 0 min 46 W/m 31,4 km/h (5 Bft) 95,65 %
22.12.2015 10:54 12,6 C 12,8 C 10,0 C 89 % 0 lf 1021,0 hPa 0,0 l/m 0 min 0 min 46 W/m 31,4 km/h (5 Bft) 97,87 %
22.12.2015 10:56 12,6 C 12,8 C 10,0 C 89 % 0 lf 1021,0 hPa 0,0 l/m 0 min 0 min 39 W/m 25,1 km/h (4 Bft) 95,74 %
22.12.2015 10:58 12,6 C 12,8 C 10,0 C 89 % 0 lf 1020,9 hPa 0,0 l/m 0 min 0 min 51 W/m 37,7 km/h (5 Bft) 95,74 %
22.12.2015 11:00 12,6 C 13,3 C 10,0 C 89 % 0 lf 1020,7 hPa 0,0 l/m 0 min 0 min 58 W/m 29,3 km/h (5 Bft) 93,62 %
22.12.2015 11:02 12,6 C 13,3 C 10,6 C 89 % 0 lf 1020,9 hPa 0,0 l/m 0 min 0 min 77 W/m 33,5 km/h (5 Bft) 95,74 %
22.12.2015 11:04 12,6 C 13,3 C 10,6 C 89 % 0 lf 1020,8 hPa 0,0 l/m 0 min 0 min 87 W/m 29,3 km/h (5 Bft) 97,83 %
22.12.2015 11:06 12,7 C 13,3 C 10,6 C 89 % 0 lf 1020,8 hPa 0,0 l/m 0 min 0 min 66 W/m 33,5 km/h (5 Bft) 97,87 %
22.12.2015 11:08 12,7 C 13,3 C 10,6 C 89 % 0 lf 1020,8 hPa 0,0 l/m 0 min 0 min 82 W/m 39,7 km/h (6 Bft) 93,62 %
22.12.2015 11:10 12,7 C 13,9 C 10,6 C 89 % 0 lf 1020,8 hPa 0,0 l/m 0 min 0 min 102 W/m 37,7 km/h (5 Bft) 100,00 %
22.12.2015 11:12 12,8 C 13,9 C 10,6 C 89 % 0 lf 1020,8 hPa 0,0 l/m 2 min 0 min 123 W/m 33,5 km/h (5 Bft) 100,00 %
22.12.2015 11:14 12,8 C 13,9 C 10,6 C 89 % 0 lf 1020,8 hPa 0,0 l/m 2 min 0 min 145 W/m 25,1 km/h (4 Bft) 100,00 %
22.12.2015 11:16 12,9 C 14,4 C 11,1 C 89 % 0 lf 1020,8 hPa 0,0 l/m 2 min 0 min 144 W/m 33,5 km/h (5 Bft) 95,65 %
22.12.2015 11:18 12,9 C 14,4 C 10,6 C 89 % 0 lf 1020,7 hPa 0,0 l/m 2 min 0 min 133 W/m 37,7 km/h (5 Bft) 95,74 %
22.12.2015 11:20 12,9 C 14,4 C 11,1 C 88 % 0 lf 1020,8 hPa 0,0 l/m 2 min 0 min 133 W/m 27,2 km/h (4 Bft) 95,74 %
22.12.2015 11:22 13,0 C 14,4 C 11,1 C 88 % 0 lf 1020,8 hPa 0,0 l/m 2 min 0 min 146 W/m 27,2 km/h (4 Bft) 97,87 %
22.12.2015 11:24 13,0 C 14,4 C 11,1 C 88 % 0 lf 1020,8 hPa 0,0 l/m 2 min 0 min 153 W/m 37,7 km/h (5 Bft) 95,74 %
22.12.2015 11:26 13,1 C 14,4 C 11,1 C 88 % 0 lf 1020,7 hPa 0,0 l/m 2 min 0 min 145 W/m 46,0 km/h (6 Bft) 95,74 %
22.12.2015 11:28 13,1 C 14,4 C 11,1 C 88 % 0 lf 1020,8 hPa 0,0 l/m 0 min 0 min 122 W/m 39,7 km/h (6 Bft) 97,83 %
22.12.2015 11:30 13,2 C 14,4 C 11,1 C 88 % 0 lf 1020,7 hPa 0,0 l/m 2 min 0 min 145 W/m 35,6 km/h (5 Bft) 97,87 %
22.12.2015 11:32 13,2 C 14,4 C 11,1 C 87 % 0 lf 1020,8 hPa 0,0 l/m 2 min 0 min 145 W/m 35,6 km/h (5 Bft) 89,36 %
22.12.2015 11:34 13,2 C 14,4 C 11,1 C 87 % 0 lf 1020,7 hPa 0,0 l/m 2 min 0 min 133 W/m 31,4 km/h (5 Bft) 97,87 %
22.12.2015 11:36 13,3 C 15,6 C 11,1 C 87 % 0 lf 1020,6 hPa 0,0 l/m 2 min 0 min 195 W/m 33,5 km/h (5 Bft) 94,34 %
22.12.2015 11:38 13,4 C 16,1 C 11,7 C 87 % 0 lf 1020,6 hPa 0,0 l/m 2 min 0 min 204 W/m 25,1 km/h (4 Bft) 95,74 %
22.12.2015 11:40 13,4 C 16,7 C 11,7 C 87 % 0 lf 1020,6 hPa 0,0 l/m 2 min 0 min 264 W/m 41,8 km/h (6 Bft) 95,74 %
22.12.2015 11:42 13,6 C 16,1 C 11,7 C 87 % 0 lf 1020,6 hPa 0,0 l/m 2 min 0 min 204 W/m 37,7 km/h (5 Bft) 97,83 %
22.12.2015 11:44 13,6 C 16,7 C 11,7 C 87 % 0 lf 1020,5 hPa 0,0 l/m 2 min 0 min 171 W/m 25,1 km/h (4 Bft) 97,87 %
22.12.2015 11:46 13,6 C 15,6 C 11,7 C 87 % 0 lf 1020,5 hPa 0,0 l/m 2 min 0 min 183 W/m 35,6 km/h (5 Bft) 91,49 %
22.12.2015 11:48 13,7 C 15,6 C 12,2 C 86 % 0 lf 1020,5 hPa 0,0 l/m 2 min 0 min 167 W/m 29,3 km/h (5 Bft) 93,62 %
22.12.2015 11:50 13,7 C 15,6 C 12,2 C 86 % 0 lf 1020,5 hPa 0,0 l/m 2 min 0 min 132 W/m 39,7 km/h (6 Bft) 95,74 %
22.12.2015 11:52 13,7 C 15,0 C 12,2 C 86 % 0 lf 1020,3 hPa 0,0 l/m 0 min 0 min 105 W/m 29,3 km/h (5 Bft) 93,48 %
22.12.2015 11:54 13,7 C 14,4 C 12,2 C 86 % 0 lf 1020,3 hPa 0,0 l/m 0 min 0 min 107 W/m 29,3 km/h (5 Bft) 97,87 %
22.12.2015 11:56 13,7 C 14,4 C 12,2 C 86 % 0 lf 1020,4 hPa 0,0 l/m 0 min 0 min 100 W/m 27,2 km/h (4 Bft) 95,74 %
22.12.2015 11:58 13,7 C 14,4 C 12,2 C 86 % 0 lf 1020,3 hPa 0,0 l/m 0 min 0 min 109 W/m 31,4 km/h (5 Bft) 97,87 %
22.12.2015 12:00 13,7 C 14,4 C 12,2 C 86 % 0 lf 1020,4 hPa 0,0 l/m 0 min 0 min 106 W/m 33,5 km/h (5 Bft) 95,74 %
22.12.2015 12:02 13,7 C 14,4 C 12,2 C 86 % 0 lf 1020,2 hPa 0,0 l/m 0 min 0 min 108 W/m 37,7 km/h (5 Bft) 95,74 %
22.12.2015 12:06 13,7 C 14,4 C 12,2 C 86 % 0 lf 1020,1 hPa 0,0 l/m 0 min 0 min 114 W/m 39,7 km/h (6 Bft) 94,68 %
22.12.2015 12:08 13,7 C 14,4 C 12,2 C 86 % 0 lf 1020,1 hPa 0,0 l/m 0 min 0 min 112 W/m 35,6 km/h (5 Bft) 93,62 %
22.12.2015 12:10 13,7 C 14,4 C 12,2 C 85 % 0 lf 1020,1 hPa 0,0 l/m 0 min 0 min 106 W/m 35,6 km/h (5 Bft) 95,74 %
22.12.2015 12:12 13,7 C 14,4 C 12,2 C 85 % 0 lf 1019,9 hPa 0,0 l/m 0 min 0 min 102 W/m 37,7 km/h (5 Bft) 93,62 %
22.12.2015 12:14 13,7 C 14,4 C 12,2 C 85 % 0 lf 1020,0 hPa 0,0 l/m 0 min 0 min 103 W/m 27,2 km/h (4 Bft) 93,62 %
22.12.2015 12:16 13,7 C 14,4 C 12,2 C 85 % 0 lf 1020,0 hPa 0,0 l/m 0 min 0 min 102 W/m 41,8 km/h (6 Bft) 95,65 %
22.12.2015 12:18 13,7 C 14,4 C 12,2 C 85 % 0 lf 1020,1 hPa 0,0 l/m 0 min 0 min 102 W/m 37,7 km/h (5 Bft) 87,23 %
22.12.2015 12:20 13,7 C 14,4 C 12,2 C 85 % 0 lf 1019,9 hPa 0,0 l/m 0 min 0 min 109 W/m 37,7 km/h (5 Bft) 95,74 %
22.12.2015 12:22 13,7 C 14,4 C 12,2 C 85 % 0 lf 1019,9 hPa 0,0 l/m 0 min 0 min 114 W/m 43,9 km/h (6 Bft) 95,74 %
22.12.2015 12:24 13,7 C 14,4 C 12,2 C 85 % 0 lf 1019,9 hPa 0,0 l/m 0 min 0 min 120 W/m 25,1 km/h (4 Bft) 95,74 %
22.12.2015 12:26 13,7 C 15,0 C 12,2 C 85 % 0 lf 1020,0 hPa 0,0 l/m 0 min 0 min 121 W/m 31,4 km/h (5 Bft) 91,49 %
22.12.2015 12:28 13,7 C 15,0 C 12,2 C 85 % 0 lf 1020,1 hPa 0,0 l/m 2 min 0 min 143 W/m 41,8 km/h (6 Bft) 93,48 %
22.12.2015 12:30 13,7 C 14,4 C 12,2 C 85 % 0 lf 1020,1 hPa 0,0 l/m 2 min 0 min 147 W/m 43,9 km/h (6 Bft) 95,74 %
22.12.2015 12:32 13,7 C 15,0 C 12,2 C 85 % 0 lf 1020,0 hPa 0,0 l/m 2 min 0 min 147 W/m 31,4 km/h (5 Bft) 95,74 %
22.12.2015 12:34 13,7 C 15,6 C 12,2 C 85 % 0 lf 1019,9 hPa 0,0 l/m 2 min 0 min 157 W/m 14,6 km/h (3 Bft) 93,62 %
22.12.2015 12:36 13,7 C 15,6 C 12,2 C 85 % 0 lf 1019,9 hPa 0,0 l/m 2 min 0 min 200 W/m 50,2 km/h (7 Bft) 92,00 %
22.12.2015 12:38 13,8 C 15,6 C 12,8 C 85 % 0 lf 1020,0 hPa 0,0 l/m 2 min 0 min 227 W/m 37,7 km/h (5 Bft) 91,30 %
22.12.2015 12:40 13,8 C 16,7 C 12,8 C 85 % 0 lf 1020,1 hPa 0,0 l/m 2 min 0 min 266 W/m 31,4 km/h (5 Bft) 93,62 %
22.12.2015 12:42 13,9 C 16,1 C 12,8 C 85 % 0 lf 1020,0 hPa 0,0 l/m 2 min 0 min 262 W/m 46,0 km/h (6 Bft) 91,49 %
22.12.2015 12:44 13,9 C 16,1 C 12,8 C 85 % 0 lf 1020,0 hPa 0,0 l/m 2 min 0 min 232 W/m 35,6 km/h (5 Bft) 93,62 %
22.12.2015 12:46 13,9 C 15,6 C 12,8 C 85 % 0 lf 1019,9 hPa 0,0 l/m 2 min 0 min 136 W/m 39,7 km/h (6 Bft) 91,49 %
22.12.2015 12:48 14,0 C 16,1 C 12,8 C 85 % 0 lf 1019,9 hPa 0,0 l/m 2 min 0 min 153 W/m 31,4 km/h (5 Bft) 91,49 %
22.12.2015 12:50 14,0 C 15,6 C 12,8 C 85 % 0 lf 1020,0 hPa 0,0 l/m 2 min 0 min 151 W/m 27,2 km/h (4 Bft) 93,48 %
22.12.2015 12:52 14,1 C 15,6 C 12,8 C 85 % 0 lf 1019,8 hPa 0,0 l/m 2 min 0 min 153 W/m 33,5 km/h (5 Bft) 94,59 %
22.12.2015 12:54 14,1 C 15,6 C 12,8 C 84 % 0 lf 1019,8 hPa 0,0 l/m 2 min 0 min 154 W/m 27,2 km/h (4 Bft) 93,62 %
22.12.2015 12:56 14,2 C 15,0 C 12,8 C 84 % 0 lf 1020,0 hPa 0,0 l/m 2 min 0 min 137 W/m 39,7 km/h (6 Bft) 95,74 %
22.12.2015 12:58 14,2 C 15,0 C 12,8 C 84 % 0 lf 1019,9 hPa 0,0 l/m 0 min 0 min 127 W/m 31,4 km/h (5 Bft) 93,62 %
22.12.2015 13:00 14,2 C 15,0 C 12,8 C 84 % 0 lf 1019,9 hPa 0,0 l/m 2 min 0 min 138 W/m 31,4 km/h (5 Bft) 95,65 %
22.12.2015 13:02 14,2 C 15,0 C 12,8 C 84 % 0 lf 1019,9 hPa 0,0 l/m 2 min 0 min 142 W/m 31,4 km/h (5 Bft) 95,74 %
22.12.2015 13:04 14,2 C 15,0 C 12,8 C 84 % 0 lf 1019,9 hPa 0,0 l/m 2 min 0 min 162 W/m 48,1 km/h (6 Bft) 93,62 %
22.12.2015 13:06 14,2 C 15,0 C 12,8 C 84 % 0 lf 1019,8 hPa 0,0 l/m 2 min 0 min 135 W/m 46,0 km/h (6 Bft) 95,74 %
22.12.2015 13:08 14,2 C 15,6 C 12,8 C 84 % 0 lf 1019,8 hPa 0,0 l/m 2 min 0 min 155 W/m 29,3 km/h (5 Bft) 97,87 %
22.12.2015 13:10 14,2 C 15,6 C 12,8 C 84 % 0 lf 1019,8 hPa 0,0 l/m 0 min 0 min 129 W/m 35,6 km/h (5 Bft) 97,87 %
22.12.2015 13:12 14,2 C 15,6 C 12,8 C 84 % 0 lf 1019,8 hPa 0,0 l/m 0 min 0 min 122 W/m 31,4 km/h (5 Bft) 97,83 %
22.12.2015 13:14 14,2 C 15,0 C 12,8 C 84 % 0 lf 1019,8 hPa 0,0 l/m 0 min 0 min 121 W/m 35,6 km/h (5 Bft) 95,74 %
22.12.2015 13:16 14,2 C 15,0 C 12,8 C 84 % 0 lf 1019,8 hPa 0,0 l/m 0 min 0 min 126 W/m 52,3 km/h (7 Bft) 95,74 %
22.12.2015 13:18 14,2 C 15,0 C 12,8 C 84 % 0 lf 1019,8 hPa 0,0 l/m 2 min 0 min 136 W/m 41,8 km/h (6 Bft) 100,00 %
22.12.2015 13:20 14,2 C 15,0 C 12,8 C 84 % 0 lf 1019,8 hPa 0,0 l/m 2 min 0 min 134 W/m 41,8 km/h (6 Bft) 100,00 %
22.12.2015 13:22 14,2 C 15,0 C 12,8 C 84 % 0 lf 1019,8 hPa 0,0 l/m 2 min 0 min 140 W/m 31,4 km/h (5 Bft) 97,87 %
22.12.2015 13:24 14,2 C 15,0 C 12,8 C 84 % 0 lf 1019,8 hPa 0,0 l/m 2 min 0 min 143 W/m 41,8 km/h (6 Bft) 97,83 %
22.12.2015 13:26 14,2 C 15,0 C 12,8 C 84 % 0 lf 1019,7 hPa 0,0 l/m 2 min 0 min 133 W/m 35,6 km/h (5 Bft) 97,87 %
22.12.2015 13:28 14,2 C 15,0 C 12,8 C 84 % 0 lf 1019,7 hPa 0,0 l/m 0 min 0 min 123 W/m 33,5 km/h (5 Bft) 100,00 %
22.12.2015 13:30 14,2 C 15,0 C 12,8 C 84 % 0 lf 1019,7 hPa 0,0 l/m 0 min 0 min 117 W/m 35,6 km/h (5 Bft) 97,87 %
22.12.2015 13:32 14,2 C 15,0 C 12,8 C 84 % 0 lf 1019,6 hPa 0,0 l/m 0 min 0 min 114 W/m 33,5 km/h (5 Bft) 100,00 %
22.12.2015 13:34 14,2 C 14,4 C 12,8 C 84 % 0 lf 1019,6 hPa 0,0 l/m 0 min 0 min 114 W/m 43,9 km/h (6 Bft) 95,74 %
22.12.2015 13:36 14,2 C 15,0 C 12,8 C 84 % 0 lf 1019,7 hPa 0,0 l/m 0 min 0 min 114 W/m 35,6 km/h (5 Bft) 100,00 %
22.12.2015 13:38 14,2 C 14,4 C 12,8 C 84 % 0 lf 1019,7 hPa 0,0 l/m 0 min 0 min 113 W/m 31,4 km/h (5 Bft) 97,87 %
22.12.2015 13:40 14,2 C 14,4 C 12,8 C 84 % 0 lf 1019,7 hPa 0,0 l/m 0 min 0 min 112 W/m 35,6 km/h (5 Bft) 100,00 %
22.12.2015 13:42 14,2 C 14,4 C 12,8 C 84 % 0 lf 1019,6 hPa 0,0 l/m 0 min 0 min 110 W/m 20,9 km/h (4 Bft) 95,74 %
22.12.2015 13:44 14,2 C 14,4 C 12,8 C 84 % 0 lf 1019,7 hPa 0,0 l/m 0 min 0 min 107 W/m 29,3 km/h (5 Bft) 97,87 %
22.12.2015 13:46 14,2 C 14,4 C 12,8 C 84 % 0 lf 1019,6 hPa 0,0 l/m 0 min 0 min 104 W/m 25,1 km/h (4 Bft) 95,74 %
22.12.2015 13:48 14,2 C 14,4 C 12,8 C 84 % 0 lf 1019,7 hPa 0,0 l/m 0 min 0 min 99 W/m 37,7 km/h (5 Bft) 100,00 %
22.12.2015 13:50 14,2 C 14,4 C 12,8 C 84 % 0 lf 1019,6 hPa 0,0 l/m 0 min 0 min 97 W/m 27,2 km/h (4 Bft) 93,62 %
22.12.2015 13:52 14,2 C 14,4 C 12,8 C 84 % 0 lf 1019,6 hPa 0,0 l/m 0 min 0 min 97 W/m 23,0 km/h (4 Bft) 97,87 %
22.12.2015 13:54 14,2 C 14,4 C 12,8 C 84 % 0 lf 1019,7 hPa 0,0 l/m 0 min 0 min 97 W/m 50,2 km/h (7 Bft) 100,00 %
22.12.2015 13:56 14,2 C 14,4 C 12,8 C 84 % 0 lf 1019,6 hPa 0,0 l/m 0 min 0 min 98 W/m 31,4 km/h (5 Bft) 93,62 %
22.12.2015 13:58 14,2 C 15,0 C 12,8 C 84 % 0 lf 1019,6 hPa 0,0 l/m 0 min 0 min 111 W/m 27,2 km/h (4 Bft) 97,87 %
22.12.2015 14:00 14,2 C 15,0 C 12,8 C 84 % 0 lf 1019,7 hPa 0,0 l/m 2 min 0 min 128 W/m 25,1 km/h (4 Bft) 100,00 %
22.12.2015 14:02 14,2 C 15,6 C 12,8 C 84 % 0 lf 1019,6 hPa 0,0 l/m 2 min 0 min 121 W/m 25,1 km/h (4 Bft) 100,00 %
22.12.2015 14:04 14,2 C 15,0 C 12,8 C 84 % 0 lf 1019,6 hPa 0,0 l/m 2 min 0 min 113 W/m 35,6 km/h (5 Bft) 97,87 %
22.12.2015 14:06 14,2 C 15,6 C 12,8 C 84 % 0 lf 1019,7 hPa 0,0 l/m 2 min 0 min 125 W/m 27,2 km/h (4 Bft) 100,00 %
22.12.2015 14:08 14,2 C 15,6 C 12,8 C 84 % 0 lf 1019,6 hPa 0,0 l/m 2 min 0 min 120 W/m 29,3 km/h (5 Bft) 95,74 %
22.12.2015 14:10 14,2 C 15,6 C 12,8 C 84 % 0 lf 1019,5 hPa 0,0 l/m 2 min 0 min 119 W/m 35,6 km/h (5 Bft) 95,74 %
22.12.2015 14:12 14,2 C 15,0 C 12,8 C 84 % 0 lf 1019,5 hPa 0,0 l/m 0 min 0 min 106 W/m 31,4 km/h (5 Bft) 97,83 %
22.12.2015 14:14 14,2 C 15,0 C 12,8 C 84 % 0 lf 1019,5 hPa 0,0 l/m 0 min 0 min 98 W/m 25,1 km/h (4 Bft) 95,74 %
22.12.2015 14:16 14,2 C 15,0 C 12,8 C 84 % 0 lf 1019,5 hPa 0,0 l/m 2 min 0 min 114 W/m 41,8 km/h (6 Bft) 97,87 %
22.12.2015 14:18 14,2 C 15,0 C 12,8 C 84 % 0 lf 1019,6 hPa 0,0 l/m 2 min 0 min 112 W/m 35,6 km/h (5 Bft) 97,87 %
22.12.2015 14:20 14,2 C 15,0 C 12,8 C 84 % 0 lf 1019,6 hPa 0,0 l/m 2 min 0 min 110 W/m 29,3 km/h (5 Bft) 97,87 %
22.12.2015 14:22 14,2 C 15,0 C 12,8 C 83 % 0 lf 1019,5 hPa 0,0 l/m 0 min 0 min 92 W/m 35,6 km/h (5 Bft) 93,48 %
22.12.2015 14:24 14,2 C 15,0 C 12,8 C 83 % 0 lf 1019,5 hPa 0,0 l/m 0 min 0 min 91 W/m 43,9 km/h (6 Bft) 100,00 %
22.12.2015 14:26 14,2 C 15,0 C 12,8 C 83 % 0 lf 1019,5 hPa 0,0 l/m 0 min 0 min 72 W/m 23,0 km/h (4 Bft) 93,62 %
22.12.2015 14:28 14,2 C 15,0 C 12,8 C 83 % 0 lf 1019,6 hPa 0,0 l/m 0 min 0 min 75 W/m 23,0 km/h (4 Bft) 97,87 %
22.12.2015 14:30 14,2 C 15,0 C 12,8 C 83 % 0 lf 1019,5 hPa 0,0 l/m 0 min 0 min 94 W/m 16,7 km/h (3 Bft) 97,87 %
22.12.2015 14:32 14,2 C 15,0 C 12,8 C 83 % 0 lf 1019,6 hPa 0,0 l/m 0 min 0 min 89 W/m 23,0 km/h (4 Bft) 97,87 %
22.12.2015 14:34 14,2 C 15,0 C 12,8 C 83 % 0 lf 1019,5 hPa 0,0 l/m 2 min 0 min 106 W/m 35,6 km/h (5 Bft) 95,65 %
22.12.2015 14:36 14,2 C 15,0 C 12,8 C 83 % 0 lf 1019,5 hPa 0,0 l/m 2 min 0 min 94 W/m 31,4 km/h (5 Bft) 94,55 %
22.12.2015 14:38 14,2 C 14,4 C 12,8 C 83 % 0 lf 1019,5 hPa 0,0 l/m 0 min 0 min 82 W/m 37,7 km/h (5 Bft) 91,30 %
22.12.2015 14:40 14,2 C 14,4 C 12,8 C 83 % 0 lf 1019,5 hPa 0,0 l/m 0 min 0 min 72 W/m 27,2 km/h (4 Bft) 93,62 %
22.12.2015 14:42 14,2 C 14,4 C 12,8 C 83 % 0 lf 1019,4 hPa 0,0 l/m 0 min 0 min 70 W/m 23,0 km/h (4 Bft) 91,49 %
22.12.2015 14:44 14,2 C 14,4 C 12,8 C 83 % 0 lf 1019,5 hPa 0,0 l/m 0 min 0 min 72 W/m 14,6 km/h (3 Bft) 95,74 %
22.12.2015 14:46 14,2 C 14,4 C 12,8 C 83 % 0 lf 1019,4 hPa 0,0 l/m 0 min 0 min 67 W/m 27,2 km/h (4 Bft) 93,62 %
22.12.2015 14:48 14,2 C 14,4 C 12,8 C 83 % 0 lf 1019,5 hPa 0,0 l/m 0 min 0 min 61 W/m 27,2 km/h (4 Bft) 95,65 %
22.12.2015 14:50 14,2 C 14,4 C 12,2 C 83 % 0 lf 1019,4 hPa 0,0 l/m 0 min 0 min 58 W/m 35,6 km/h (5 Bft) 95,74 %
22.12.2015 14:52 14,2 C 14,4 C 12,2 C 83 % 0 lf 1019,5 hPa 0,0 l/m 0 min 0 min 59 W/m 20,9 km/h (4 Bft) 93,62 %
22.12.2015 14:54 14,2 C 14,4 C 12,2 C 83 % 0 lf 1019,5 hPa 0,0 l/m 0 min 0 min 52 W/m 29,3 km/h (5 Bft) 95,74 %
22.12.2015 14:56 14,1 C 14,4 C 12,2 C 83 % 0 lf 1019,5 hPa 0,0 l/m 0 min 0 min 48 W/m 33,5 km/h (5 Bft) 95,74 %
22.12.2015 14:58 14,1 C 14,4 C 12,2 C 83 % 0 lf 1019,4 hPa 0,0 l/m 0 min 0 min 54 W/m 27,2 km/h (4 Bft) 95,74 %
22.12.2015 15:00 14,1 C 14,4 C 12,2 C 83 % 0 lf 1019,5 hPa 0,0 l/m 0 min 0 min 53 W/m 25,1 km/h (4 Bft) 95,65 %
22.12.2015 15:02 14,0 C 14,4 C 12,2 C 83 % 0 lf 1019,4 hPa 0,0 l/m 0 min 0 min 52 W/m 33,5 km/h (5 Bft) 97,87 %
22.12.2015 15:04 14,0 C 14,4 C 12,2 C 83 % 0 lf 1019,5 hPa 0,0 l/m 0 min 0 min 55 W/m 25,1 km/h (4 Bft) 93,62 %
22.12.2015 15:06 14,0 C 14,4 C 12,2 C 83 % 0 lf 1019,4 hPa 0,0 l/m 0 min 0 min 55 W/m 25,1 km/h (4 Bft) 95,74 %
22.12.2015 15:08 14,0 C 14,4 C 12,2 C 83 % 0 lf 1019,4 hPa 0,0 l/m 0 min 0 min 57 W/m 29,3 km/h (5 Bft) 95,74 %
22.12.2015 15:10 13,9 C 14,4 C 12,2 C 83 % 0 lf 1019,4 hPa 0,0 l/m 0 min 0 min 54 W/m 27,2 km/h (4 Bft) 97,87 %
22.12.2015 15:12 13,9 C 13,9 C 12,2 C 83 % 0 lf 1019,3 hPa 0,0 l/m 0 min 0 min 55 W/m 29,3 km/h (5 Bft) 97,83 %
22.12.2015 15:14 13,9 C 13,9 C 12,2 C 83 % 0 lf 1019,2 hPa 0,0 l/m 0 min 0 min 50 W/m 29,3 km/h (5 Bft) 95,74 %
22.12.2015 15:16 13,9 C 13,9 C 12,2 C 83 % 0 lf 1019,4 hPa 0,0 l/m 0 min 0 min 56 W/m 23,0 km/h (4 Bft) 95,74 %
22.12.2015 15:18 13,9 C 13,9 C 12,2 C 83 % 0 lf 1019,4 hPa 0,0 l/m 0 min 0 min 57 W/m 31,4 km/h (5 Bft) 95,74 %
22.12.2015 15:20 13,9 C 13,9 C 12,2 C 83 % 0 lf 1019,5 hPa 0,0 l/m 0 min 0 min 49 W/m 31,4 km/h (5 Bft) 97,87 %
22.12.2015 15:22 13,8 C 13,9 C 12,2 C 83 % 0 lf 1019,5 hPa 0,0 l/m 0 min 0 min 46 W/m 18,8 km/h (3 Bft) 93,62 %
22.12.2015 15:24 13,8 C 13,9 C 12,2 C 83 % 0 lf 1019,4 hPa 0,0 l/m 0 min 0 min 45 W/m 31,4 km/h (5 Bft) 95,65 %
22.12.2015 15:26 13,8 C 13,9 C 12,2 C 83 % 0 lf 1019,4 hPa 0,0 l/m 0 min 0 min 44 W/m 33,5 km/h (5 Bft) 97,87 %
22.12.2015 15:28 13,8 C 13,9 C 12,2 C 83 % 0 lf 1019,4 hPa 0,0 l/m 0 min 0 min 43 W/m 29,3 km/h (5 Bft) 97,87 %
22.12.2015 15:30 13,8 C 13,9 C 12,2 C 83 % 0 lf 1019,5 hPa 0,0 l/m 0 min 0 min 40 W/m 25,1 km/h (4 Bft) 97,87 %
22.12.2015 15:32 13,7 C 13,9 C 12,2 C 83 % 0 lf 1019,5 hPa 0,0 l/m 0 min 0 min 42 W/m 27,2 km/h (4 Bft) 91,49 %
22.12.2015 15:34 13,7 C 13,9 C 12,2 C 83 % 0 lf 1019,4 hPa 0,0 l/m 0 min 0 min 40 W/m 29,3 km/h (5 Bft) 97,87 %
22.12.2015 15:36 13,7 C 13,9 C 12,2 C 83 % 0 lf 1019,5 hPa 0,0 l/m 0 min 0 min 39 W/m 33,5 km/h (5 Bft) 97,96 %
22.12.2015 15:38 13,7 C 13,9 C 12,2 C 83 % 0 lf 1019,5 hPa 0,0 l/m 0 min 0 min 39 W/m 23,0 km/h (4 Bft) 95,74 %
22.12.2015 15:40 13,7 C 13,9 C 12,2 C 83 % 0 lf 1019,4 hPa 0,0 l/m 0 min 0 min 40 W/m 31,4 km/h (5 Bft) 91,49 %
22.12.2015 15:42 13,7 C 13,9 C 12,2 C 83 % 0 lf 1019,4 hPa 0,0 l/m 0 min 0 min 40 W/m 35,6 km/h (5 Bft) 95,74 %
22.12.2015 15:44 13,7 C 13,9 C 12,2 C 83 % 0 lf 1019,4 hPa 0,0 l/m 0 min 0 min 38 W/m 29,3 km/h (5 Bft) 97,87 %
22.12.2015 15:46 13,7 C 13,9 C 12,2 C 83 % 0 lf 1019,5 hPa 0,0 l/m 2 min 0 min 37 W/m 23,0 km/h (4 Bft) 91,30 %
22.12.2015 15:48 13,7 C 13,9 C 11,7 C 83 % 0 lf 1019,5 hPa 0,0 l/m 0 min 0 min 34 W/m 31,4 km/h (5 Bft) 93,62 %
22.12.2015 15:50 13,6 C 13,9 C 11,7 C 83 % 0 lf 1019,4 hPa 0,0 l/m 0 min 0 min 32 W/m 35,6 km/h (5 Bft) 95,74 %
22.12.2015 15:52 13,6 C 13,9 C 11,7 C 83 % 0 lf 1019,4 hPa 0,0 l/m 0 min 0 min 30 W/m 23,0 km/h (4 Bft) 97,87 %
22.12.2015 15:54 13,6 C 13,9 C 11,7 C 83 % 0 lf 1019,4 hPa 0,0 l/m 0 min 0 min 27 W/m 27,2 km/h (4 Bft) 95,74 %
22.12.2015 15:56 13,6 C 13,9 C 11,7 C 83 % 0 lf 1019,4 hPa 0,0 l/m 0 min 0 min 26 W/m 29,3 km/h (5 Bft) 95,74 %
22.12.2015 15:58 13,6 C 13,9 C 11,7 C 83 % 0 lf 1019,3 hPa 0,0 l/m 2 min 0 min 25 W/m 27,2 km/h (4 Bft) 97,83 %
22.12.2015 16:00 13,6 C 13,9 C 11,7 C 83 % 0 lf 1019,4 hPa 0,0 l/m 2 min 0 min 23 W/m 35,6 km/h (5 Bft) 97,87 %
22.12.2015 16:02 13,5 C 13,9 C 11,7 C 83 % 0 lf 1019,3 hPa 0,0 l/m 2 min 0 min 21 W/m 35,6 km/h (5 Bft) 93,62 %
22.12.2015 16:04 13,5 C 13,9 C 11,7 C 83 % 0 lf 1019,3 hPa 0,0 l/m 2 min 0 min 21 W/m 37,7 km/h (5 Bft) 95,74 %
22.12.2015 16:06 13,5 C 13,3 C 11,7 C 83 % 0 lf 1019,4 hPa 0,0 l/m 2 min 0 min 20 W/m 29,3 km/h (5 Bft) 97,87 %
22.12.2015 16:08 13,5 C 13,9 C 11,7 C 83 % 0 lf 1019,4 hPa 0,0 l/m 0 min 0 min 18 W/m 35,6 km/h (5 Bft) 97,87 %
22.12.2015 16:10 13,5 C 13,3 C 11,7 C 83 % 0 lf 1019,5 hPa 0,0 l/m 0 min 0 min 17 W/m 31,4 km/h (5 Bft) 97,83 %
22.12.2015 16:12 13,5 C 13,3 C 11,7 C 83 % 0 lf 1019,5 hPa 0,0 l/m 0 min 0 min 14 W/m 35,6 km/h (5 Bft) 97,87 %
22.12.2015 16:14 13,4 C 13,3 C 11,7 C 83 % 0 lf 1019,5 hPa 0,0 l/m 0 min 0 min 13 W/m 29,3 km/h (5 Bft) 93,62 %
22.12.2015 16:16 13,4 C 13,3 C 11,7 C 83 % 0 lf 1019,5 hPa 0,0 l/m 0 min 0 min 12 W/m 25,1 km/h (4 Bft) 95,74 %
22.12.2015 16:18 13,4 C 13,3 C 11,7 C 83 % 0 lf 1019,6 hPa 0,0 l/m 0 min 0 min 11 W/m 29,3 km/h (5 Bft) 97,87 %
22.12.2015 16:20 13,4 C 13,9 C 11,7 C 83 % 0 lf 1019,6 hPa 0,0 l/m 0 min 0 min 11 W/m 37,7 km/h (5 Bft) 97,87 %
22.12.2015 16:22 13,4 C 13,3 C 11,7 C 83 % 0 lf 1019,6 hPa 0,0 l/m 0 min 0 min 9 W/m 27,2 km/h (4 Bft) 95,65 %
22.12.2015 16:24 13,4 C 13,3 C 11,7 C 83 % 0 lf 1019,6 hPa 0,0 l/m 0 min 0 min 9 W/m 31,4 km/h (5 Bft) 95,74 %
22.12.2015 16:26 13,4 C 13,3 C 11,7 C 83 % 0 lf 1019,6 hPa 0,0 l/m 0 min 0 min 7 W/m 20,9 km/h (4 Bft) 97,87 %
22.12.2015 16:28 13,4 C 13,3 C 11,7 C 83 % 0 lf 1019,5 hPa 0,0 l/m 0 min 0 min 7 W/m 27,2 km/h (4 Bft) 97,87 %
22.12.2015 16:30 13,4 C 13,3 C 11,7 C 83 % 0 lf 1019,5 hPa 0,0 l/m 0 min 0 min 7 W/m 27,2 km/h (4 Bft) 95,74 %
22.12.2015 16:32 13,4 C 13,3 C 11,7 C 83 % 0 lf 1019,6 hPa 0,0 l/m 0 min 0 min 6 W/m 23,0 km/h (4 Bft) 95,65 %
22.12.2015 16:34 13,4 C 13,3 C 11,7 C 83 % 0 lf 1019,6 hPa 0,0 l/m 0 min 0 min 5 W/m 23,0 km/h (4 Bft) 97,87 %
22.12.2015 16:36 13,4 C 13,3 C 11,7 C 83 % 0 lf 1019,5 hPa 0,0 l/m 0 min 0 min 5 W/m 25,1 km/h (4 Bft) 93,62 %
22.12.2015 16:38 13,4 C 13,3 C 11,7 C 83 % 0 lf 1019,5 hPa 0,0 l/m 0 min 0 min 5 W/m 29,3 km/h (5 Bft) 93,62 %
22.12.2015 16:40 13,3 C 13,3 C 11,7 C 83 % 0 lf 1019,7 hPa 0,0 l/m 0 min 0 min 4 W/m 25,1 km/h (4 Bft) 95,74 %
22.12.2015 16:42 13,4 C 13,3 C 11,7 C 83 % 0 lf 1019,6 hPa 0,0 l/m 0 min 0 min 0 W/m 33,5 km/h (5 Bft) 93,62 %
22.12.2015 16:44 13,3 C 13,3 C 11,7 C 83 % 0 lf 1019,6 hPa 0,0 l/m 0 min 0 min 0 W/m 14,6 km/h (3 Bft) 91,30 %
22.12.2015 16:46 13,3 C 13,3 C 11,7 C 83 % 0 lf 1019,6 hPa 0,0 l/m 0 min 0 min 0 W/m 35,6 km/h (5 Bft) 95,74 %
22.12.2015 16:48 13,4 C 13,3 C 11,7 C 83 % 0 lf 1019,7 hPa 0,0 l/m 0 min 0 min 0 W/m 31,4 km/h (5 Bft) 95,74 %
22.12.2015 16:50 13,4 C 13,9 C 11,7 C 83 % 0 lf 1019,6 hPa 0,0 l/m 0 min 0 min 0 W/m 23,0 km/h (4 Bft) 95,74 %
22.12.2015 16:52 13,4 C 13,9 C 11,7 C 83 % 0 lf 1019,7 hPa 0,0 l/m 0 min 0 min 0 W/m 27,2 km/h (4 Bft) 97,87 %
22.12.2015 16:54 13,4 C 13,9 C 11,7 C 83 % 0 lf 1019,7 hPa 0,0 l/m 0 min 0 min 0 W/m 25,1 km/h (4 Bft) 97,87 %
22.12.2015 16:56 13,4 C 13,9 C 11,7 C 83 % 0 lf 1019,6 hPa 0,0 l/m 0 min 0 min 0 W/m 35,6 km/h (5 Bft) 91,30 %
22.12.2015 16:58 13,4 C 13,9 C 11,7 C 83 % 0 lf 1019,7 hPa 0,0 l/m 0 min 0 min 0 W/m 18,8 km/h (3 Bft) 97,87 %
22.12.2015 17:00 13,4 C 13,9 C 11,7 C 83 % 0 lf 1019,7 hPa 0,0 l/m 0 min 0 min 0 W/m 27,2 km/h (4 Bft) 93,62 %
22.12.2015 17:02 13,4 C 13,9 C 11,7 C 83 % 0 lf 1019,7 hPa 0,0 l/m 0 min 0 min 0 W/m 20,9 km/h (4 Bft) 97,87 %
22.12.2015 17:04 13,4 C 13,3 C 11,7 C 83 % 0 lf 1019,8 hPa 0,0 l/m 0 min 0 min 0 W/m 10,5 km/h (2 Bft) 95,74 %
22.12.2015 17:06 13,4 C 13,9 C 11,7 C 83 % 0 lf 1019,7 hPa 0,0 l/m 0 min 0 min 0 W/m 25,1 km/h (4 Bft) 97,83 %
22.12.2015 17:08 13,4 C 13,9 C 11,7 C 83 % 0 lf 1019,7 hPa 0,0 l/m 0 min 0 min 0 W/m 35,6 km/h (5 Bft) 95,65 %
22.12.2015 17:10 13,4 C 13,9 C 11,7 C 83 % 0 lf 1019,7 hPa 0,0 l/m 0 min 0 min 0 W/m 25,1 km/h (4 Bft) 97,87 %
22.12.2015 17:12 13,4 C 13,9 C 11,7 C 83 % 0 lf 1019,6 hPa 0,0 l/m 0 min 0 min 0 W/m 27,2 km/h (4 Bft) 95,74 %
22.12.2015 17:14 13,4 C 13,9 C 11,7 C 83 % 0 lf 1019,7 hPa 0,0 l/m 0 min 0 min 0 W/m 39,7 km/h (6 Bft) 95,74 %
22.12.2015 17:16 13,4 C 13,9 C 11,7 C 83 % 0 lf 1019,7 hPa 0,0 l/m 0 min 0 min 0 W/m 31,4 km/h (5 Bft) 97,87 %
22.12.2015 17:18 13,4 C 13,9 C 11,7 C 83 % 0 lf 1019,8 hPa 0,0 l/m 0 min 0 min 0 W/m 33,5 km/h (5 Bft) 97,87 %
22.12.2015 17:20 13,4 C 13,9 C 11,7 C 83 % 0 lf 1019,7 hPa 0,0 l/m 0 min 0 min 0 W/m 41,8 km/h (6 Bft) 97,83 %
22.12.2015 17:22 13,4 C 13,9 C 11,7 C 83 % 0 lf 1019,6 hPa 0,0 l/m 0 min 0 min 0 W/m 27,2 km/h (4 Bft) 95,74 %
22.12.2015 17:24 13,4 C 13,9 C 11,7 C 83 % 0 lf 1019,6 hPa 0,0 l/m 0 min 0 min 0 W/m 27,2 km/h (4 Bft) 93,62 %
22.12.2015 17:26 13,5 C 13,9 C 11,7 C 83 % 0 lf 1019,5 hPa 0,0 l/m 0 min 0 min 0 W/m 37,7 km/h (5 Bft) 97,87 %
22.12.2015 17:28 13,4 C 13,9 C 11,7 C 83 % 0 lf 1019,6 hPa 0,0 l/m 0 min 0 min 0 W/m 25,1 km/h (4 Bft) 95,74 %
22.12.2015 17:30 13,4 C 13,9 C 11,7 C 83 % 0 lf 1019,6 hPa 0,0 l/m 0 min 0 min 0 W/m 25,1 km/h (4 Bft) 95,74 %
22.12.2015 17:32 13,4 C 13,3 C 11,7 C 83 % 0 lf 1019,6 hPa 0,0 l/m 0 min 0 min 0 W/m 14,6 km/h (3 Bft) 93,48 %
22.12.2015 17:34 13,4 C 13,9 C 11,7 C 83 % 0 lf 1019,5 hPa 0,0 l/m 0 min 0 min 0 W/m 29,3 km/h (5 Bft) 97,87 %
22.12.2015 17:36 13,4 C 13,3 C 11,7 C 83 % 0 lf 1019,5 hPa 0,0 l/m 0 min 0 min 0 W/m 23,0 km/h (4 Bft) 93,62 %
22.12.2015 17:38 13,4 C 13,9 C 11,7 C 83 % 0 lf 1019,5 hPa 0,0 l/m 0 min 0 min 0 W/m 31,4 km/h (5 Bft) 97,87 %
22.12.2015 17:40 13,4 C 13,9 C 11,7 C 83 % 0 lf 1019,5 hPa 0,0 l/m 0 min 0 min 0 W/m 33,5 km/h (5 Bft) 95,74 %
22.12.2015 17:42 13,4 C 13,9 C 11,7 C 83 % 0 lf 1019,4 hPa 0,0 l/m 0 min 0 min 0 W/m 25,1 km/h (4 Bft) 97,83 %
22.12.2015 17:44 13,4 C 13,9 C 11,7 C 83 % 0 lf 1019,4 hPa 0,0 l/m 0 min 0 min 0 W/m 31,4 km/h (5 Bft) 93,62 %
22.12.2015 17:46 13,4 C 13,9 C 11,7 C 83 % 0 lf 1019,4 hPa 0,0 l/m 0 min 0 min 0 W/m 29,3 km/h (5 Bft) 93,62 %
22.12.2015 17:48 13,4 C 13,3 C 11,7 C 83 % 0 lf 1019,4 hPa 0,0 l/m 0 min 0 min 0 W/m 20,9 km/h (4 Bft) 97,87 %
22.12.2015 17:50 13,4 C 13,3 C 11,7 C 83 % 0 lf 1019,4 hPa 0,0 l/m 0 min 0 min 0 W/m 25,1 km/h (4 Bft) 95,74 %
22.12.2015 17:52 13,4 C 13,9 C 11,7 C 83 % 0 lf 1019,4 hPa 0,0 l/m 0 min 0 min 0 W/m 35,6 km/h (5 Bft) 100,00 %
22.12.2015 17:54 13,4 C 13,3 C 11,7 C 83 % 0 lf 1019,5 hPa 0,0 l/m 0 min 0 min 0 W/m 12,6 km/h (3 Bft) 100,00 %
22.12.2015 17:56 13,4 C 13,3 C 11,7 C 83 % 0 lf 1019,5 hPa 0,0 l/m 0 min 0 min 0 W/m 23,0 km/h (4 Bft) 97,87 %
22.12.2015 17:58 13,4 C 13,3 C 11,7 C 83 % 0 lf 1019,4 hPa 0,0 l/m 0 min 0 min 0 W/m 16,7 km/h (3 Bft) 95,74 %
22.12.2015 18:00 13,4 C 13,3 C 11,7 C 83 % 0 lf 1019,5 hPa 0,0 l/m 0 min 0 min 0 W/m 20,9 km/h (4 Bft) 97,87 %
22.12.2015 18:02 13,4 C 13,3 C 11,7 C 83 % 0 lf 1019,5 hPa 0,0 l/m 0 min 0 min 0 W/m 18,8 km/h (3 Bft) 97,87 %
22.12.2015 18:06 13,4 C 13,3 C 11,7 C 83 % 0 lf 1019,4 hPa 0,0 l/m 0 min 0 min 0 W/m 25,1 km/h (4 Bft) 96,77 %
22.12.2015 18:08 13,4 C 13,3 C 11,7 C 83 % 0 lf 1019,4 hPa 0,0 l/m 0 min 0 min 0 W/m 23,0 km/h (4 Bft) 93,62 %
22.12.2015 18:10 13,4 C 13,3 C 11,7 C 83 % 0 lf 1019,4 hPa 0,0 l/m 0 min 0 min 0 W/m 18,8 km/h (3 Bft) 97,87 %
22.12.2015 18:12 13,4 C 13,3 C 11,7 C 83 % 0 lf 1019,4 hPa 0,0 l/m 0 min 0 min 0 W/m 23,0 km/h (4 Bft) 97,87 %
22.12.2015 18:14 13,4 C 13,3 C 11,7 C 83 % 0 lf 1019,4 hPa 0,0 l/m 0 min 0 min 0 W/m 20,9 km/h (4 Bft) 97,87 %
22.12.2015 18:16 13,4 C 13,3 C 11,7 C 83 % 0 lf 1019,5 hPa 0,0 l/m 0 min 0 min 0 W/m 18,8 km/h (3 Bft) 97,87 %
22.12.2015 18:18 13,4 C 13,3 C 11,7 C 83 % 0 lf 1019,5 hPa 0,0 l/m 0 min 0 min 0 W/m 16,7 km/h (3 Bft) 97,83 %
22.12.2015 18:20 13,4 C 13,3 C 11,7 C 83 % 0 lf 1019,5 hPa 0,0 l/m 0 min 0 min 0 W/m 10,5 km/h (2 Bft) 89,36 %
22.12.2015 18:22 13,4 C 13,3 C 11,7 C 83 % 0 lf 1019,4 hPa 0,0 l/m 0 min 0 min 0 W/m 18,8 km/h (3 Bft) 97,87 %
22.12.2015 18:24 13,4 C 13,3 C 11,7 C 83 % 0 lf 1019,5 hPa 0,0 l/m 0 min 0 min 0 W/m 29,3 km/h (5 Bft) 95,74 %
22.12.2015 18:26 13,4 C 13,3 C 11,7 C 83 % 0 lf 1019,5 hPa 0,0 l/m 0 min 0 min 0 W/m 23,0 km/h (4 Bft) 93,62 %
22.12.2015 18:28 13,4 C 13,3 C 11,7 C 83 % 0 lf 1019,4 hPa 0,0 l/m 0 min 0 min 0 W/m 14,6 km/h (3 Bft) 93,62 %
22.12.2015 18:30 13,4 C 13,3 C 11,7 C 83 % 0 lf 1019,5 hPa 0,0 l/m 0 min 0 min 0 W/m 25,1 km/h (4 Bft) 95,65 %
22.12.2015 18:32 13,4 C 13,3 C 11,7 C 83 % 0 lf 1019,4 hPa 0,0 l/m 0 min 0 min 0 W/m 16,7 km/h (3 Bft) 93,62 %
22.12.2015 18:34 13,4 C 13,3 C 11,7 C 83 % 0 lf 1019,3 hPa 0,0 l/m 0 min 0 min 0 W/m 23,0 km/h (4 Bft) 95,74 %
22.12.2015 18:36 13,4 C 13,3 C 11,7 C 83 % 0 lf 1019,3 hPa 0,0 l/m 0 min 0 min 0 W/m 20,9 km/h (4 Bft) 91,49 %
22.12.2015 18:38 13,3 C 13,3 C 11,7 C 83 % 0 lf 1019,2 hPa 0,0 l/m 0 min 0 min 0 W/m 23,0 km/h (4 Bft) 91,49 %
22.12.2015 18:40 13,3 C 13,3 C 11,7 C 83 % 0 lf 1019,3 hPa 0,0 l/m 0 min 0 min 0 W/m 20,9 km/h (4 Bft) 93,62 %
22.12.2015 18:42 13,3 C 13,3 C 11,7 C 83 % 0 lf 1019,3 hPa 0,0 l/m 0 min 0 min 0 W/m 29,3 km/h (5 Bft) 95,65 %
22.12.2015 18:44 13,3 C 13,3 C 11,7 C 83 % 0 lf 1019,4 hPa 0,0 l/m 0 min 0 min 0 W/m 20,9 km/h (4 Bft) 95,74 %
22.12.2015 18:46 13,3 C 13,3 C 11,7 C 83 % 0 lf 1019,4 hPa 0,0 l/m 0 min 0 min 0 W/m 18,8 km/h (3 Bft) 95,74 %
22.12.2015 18:48 13,3 C 13,3 C 11,7 C 83 % 0 lf 1019,5 hPa 0,0 l/m 0 min 0 min 0 W/m 23,0 km/h (4 Bft) 93,62 %
22.12.2015 18:50 13,3 C 13,3 C 11,7 C 83 % 0 lf 1019,5 hPa 0,0 l/m 0 min 0 min 0 W/m 16,7 km/h (3 Bft) 97,87 %
22.12.2015 18:52 13,3 C 13,3 C 11,7 C 83 % 0 lf 1019,4 hPa 0,0 l/m 0 min 0 min 0 W/m 20,9 km/h (4 Bft) 97,83 %
22.12.2015 18:54 13,3 C 13,3 C 11,7 C 83 % 0 lf 1019,5 hPa 0,0 l/m 0 min 0 min 0 W/m 20,9 km/h (4 Bft) 97,87 %
22.12.2015 18:56 13,3 C 13,3 C 11,7 C 83 % 0 lf 1019,5 hPa 0,0 l/m 0 min 0 min 0 W/m 25,1 km/h (4 Bft) 95,74 %
22.12.2015 18:58 13,3 C 13,3 C 11,7 C 83 % 0 lf 1019,4 hPa 0,0 l/m 0 min 0 min 0 W/m 25,1 km/h (4 Bft) 93,62 %
22.12.2015 19:00 13,2 C 13,3 C 11,7 C 83 % 0 lf 1019,5 hPa 0,0 l/m 0 min 0 min 0 W/m 14,6 km/h (3 Bft) 100,00 %
22.12.2015 19:02 13,2 C 13,3 C 11,7 C 83 % 0 lf 1019,5 hPa 0,0 l/m 0 min 0 min 0 W/m 18,8 km/h (3 Bft) 100,00 %
22.12.2015 19:04 13,2 C 13,3 C 11,7 C 83 % 0 lf 1019,5 hPa 0,0 l/m 0 min 0 min 0 W/m 18,8 km/h (3 Bft) 100,00 %
22.12.2015 19:06 13,2 C 13,3 C 11,7 C 83 % 0 lf 1019,5 hPa 0,0 l/m 0 min 0 min 0 W/m 18,8 km/h (3 Bft) 100,00 %
22.12.2015 19:08 13,2 C 13,3 C 11,7 C 83 % 0 lf 1019,5 hPa 0,0 l/m 0 min 0 min 0 W/m 18,8 km/h (3 Bft) 100,00 %
22.12.2015 19:10 13,2 C 13,3 C 11,7 C 83 % 0 lf 1019,5 hPa 0,0 l/m 0 min 0 min 0 W/m 16,7 km/h (3 Bft) 97,87 %
22.12.2015 19:12 13,2 C 13,3 C 11,7 C 83 % 0 lf 1019,4 hPa 0,0 l/m 0 min 0 min 0 W/m 14,6 km/h (3 Bft) 100,00 %
22.12.2015 19:14 13,2 C 13,3 C 11,7 C 83 % 0 lf 1019,4 hPa 0,0 l/m 0 min 0 min 0 W/m 14,6 km/h (3 Bft) 100,00 %
22.12.2015 19:16 13,2 C 13,3 C 11,7 C 83 % 0 lf 1019,5 hPa 0,0 l/m 0 min 0 min 0 W/m 12,6 km/h (3 Bft) 95,65 %
22.12.2015 19:18 13,2 C 13,3 C 11,7 C 83 % 0 lf 1019,4 hPa 0,0 l/m 0 min 0 min 0 W/m 14,6 km/h (3 Bft) 95,74 %
22.12.2015 19:20 13,2 C 13,3 C 11,7 C 83 % 0 lf 1019,5 hPa 0,0 l/m 0 min 0 min 0 W/m 16,7 km/h (3 Bft) 100,00 %
22.12.2015 19:22 13,2 C 13,3 C 11,7 C 83 % 0 lf 1019,5 hPa 0,0 l/m 0 min 0 min 0 W/m 20,9 km/h (4 Bft) 100,00 %
22.12.2015 19:24 13,2 C 13,3 C 11,7 C 83 % 0 lf 1019,5 hPa 0,0 l/m 0 min 0 min 0 W/m 25,1 km/h (4 Bft) 100,00 %
22.12.2015 19:26 13,2 C 13,3 C 11,7 C 83 % 0 lf 1019,5 hPa 0,0 l/m 0 min 0 min 0 W/m 16,7 km/h (3 Bft) 100,00 %
22.12.2015 19:28 13,1 C 13,3 C 11,7 C 83 % 0 lf 1019,5 hPa 0,0 l/m 0 min 0 min 0 W/m 27,2 km/h (4 Bft) 97,83 %
22.12.2015 19:30 13,1 C 13,3 C 11,7 C 83 % 0 lf 1019,5 hPa 0,0 l/m 0 min 0 min 0 W/m 23,0 km/h (4 Bft) 100,00 %
22.12.2015 19:32 13,1 C 13,3 C 11,7 C 83 % 0 lf 1019,5 hPa 0,0 l/m 0 min 0 min 0 W/m 18,8 km/h (3 Bft) 95,74 %
22.12.2015 19:34 13,1 C 13,3 C 11,7 C 84 % 0 lf 1019,5 hPa 0,0 l/m 0 min 0 min 0 W/m 23,0 km/h (4 Bft) 100,00 %
22.12.2015 19:36 13,1 C 13,3 C 11,7 C 84 % 0 lf 1019,5 hPa 0,0 l/m 0 min 0 min 0 W/m 20,9 km/h (4 Bft) 95,74 %
22.12.2015 19:38 13,1 C 12,8 C 11,7 C 84 % 0 lf 1019,5 hPa 0,0 l/m 0 min 0 min 0 W/m 18,8 km/h (3 Bft) 97,87 %
22.12.2015 19:40 13,1 C 12,8 C 11,7 C 84 % 0 lf 1019,5 hPa 0,0 l/m 0 min 0 min 0 W/m 16,7 km/h (3 Bft) 97,83 %
22.12.2015 19:42 13,1 C 13,3 C 11,7 C 84 % 0 lf 1019,5 hPa 0,0 l/m 0 min 0 min 0 W/m 29,3 km/h (5 Bft) 97,87 %
22.12.2015 19:44 13,1 C 13,3 C 11,7 C 84 % 0 lf 1019,5 hPa 0,0 l/m 0 min 0 min 0 W/m 18,8 km/h (3 Bft) 97,87 %
22.12.2015 19:46 13,1 C 13,3 C 11,7 C 84 % 0 lf 1019,5 hPa 0,0 l/m 0 min 0 min 0 W/m 20,9 km/h (4 Bft) 93,62 %
22.12.2015 19:48 13,0 C 13,3 C 11,7 C 84 % 0 lf 1019,5 hPa 0,0 l/m 0 min 0 min 0 W/m 16,7 km/h (3 Bft) 97,87 %
22.12.2015 19:50 13,1 C 13,3 C 11,7 C 84 % 0 lf 1019,6 hPa 0,0 l/m 0 min 0 min 0 W/m 18,8 km/h (3 Bft) 97,87 %
22.12.2015 19:52 13,1 C 13,3 C 11,1 C 84 % 0 lf 1019,5 hPa 0,0 l/m 0 min 0 min 0 W/m 14,6 km/h (3 Bft) 93,48 %
22.12.2015 19:54 13,0 C 13,3 C 11,7 C 84 % 0 lf 1019,5 hPa 0,0 l/m 0 min 0 min 0 W/m 12,6 km/h (3 Bft) 95,74 %
22.12.2015 19:56 13,0 C 12,8 C 11,7 C 84 % 0 lf 1019,5 hPa 0,0 l/m 0 min 0 min 0 W/m 12,6 km/h (3 Bft) 93,62 %
22.12.2015 19:58 13,0 C 12,8 C 11,1 C 84 % 0 lf 1019,5 hPa 0,0 l/m 0 min 0 min 0 W/m 20,9 km/h (4 Bft) 93,62 %
22.12.2015 20:00 13,0 C 12,8 C 11,1 C 84 % 0 lf 1019,5 hPa 0,0 l/m 0 min 0 min 0 W/m 16,7 km/h (3 Bft) 93,62 %
22.12.2015 20:02 13,0 C 12,8 C 11,1 C 84 % 0 lf 1019,4 hPa 0,0 l/m 0 min 0 min 0 W/m 12,6 km/h (3 Bft) 94,44 %
22.12.2015 20:04 13,0 C 12,8 C 11,1 C 84 % 0 lf 1019,4 hPa 0,0 l/m 0 min 0 min 0 W/m 14,6 km/h (3 Bft) 89,36 %
22.12.2015 20:06 12,9 C 12,8 C 11,1 C 84 % 0 lf 1019,4 hPa 0,0 l/m 0 min 0 min 0 W/m 18,8 km/h (3 Bft) 95,74 %
22.12.2015 20:08 12,9 C 12,8 C 11,7 C 84 % 0 lf 1019,4 hPa 0,0 l/m 0 min 0 min 0 W/m 16,7 km/h (3 Bft) 93,62 %
22.12.2015 20:10 12,9 C 12,8 C 11,7 C 84 % 0 lf 1019,3 hPa 0,0 l/m 0 min 0 min 0 W/m 20,9 km/h (4 Bft) 95,74 %
22.12.2015 20:12 12,9 C 12,8 C 11,7 C 84 % 0 lf 1019,3 hPa 0,0 l/m 0 min 0 min 0 W/m 25,1 km/h (4 Bft) 93,62 %
22.12.2015 20:14 12,9 C 13,3 C 11,7 C 84 % 0 lf 1019,3 hPa 0,0 l/m 0 min 0 min 0 W/m 31,4 km/h (5 Bft) 95,65 %
22.12.2015 20:16 12,9 C 13,3 C 11,7 C 84 % 0 lf 1019,3 hPa 0,0 l/m 0 min 0 min 0 W/m 23,0 km/h (4 Bft) 95,74 %
22.12.2015 20:18 12,9 C 13,3 C 11,1 C 84 % 0 lf 1019,2 hPa 0,0 l/m 0 min 0 min 0 W/m 23,0 km/h (4 Bft) 93,62 %
22.12.2015 20:20 12,9 C 13,3 C 11,7 C 83 % 0 lf 1019,2 hPa 0,0 l/m 0 min 0 min 0 W/m 31,4 km/h (5 Bft) 85,11 %
22.12.2015 20:22 12,9 C 13,3 C 11,7 C 83 % 0 lf 1019,3 hPa 0,0 l/m 0 min 0 min 0 W/m 25,1 km/h (4 Bft) 91,49 %
22.12.2015 20:24 12,9 C 13,3 C 11,7 C 83 % 0 lf 1019,3 hPa 0,0 l/m 0 min 0 min 0 W/m 23,0 km/h (4 Bft) 93,62 %
22.12.2015 20:26 12,9 C 13,3 C 11,7 C 83 % 0 lf 1019,2 hPa 0,0 l/m 0 min 0 min 0 W/m 25,1 km/h (4 Bft) 93,48 %
22.12.2015 20:28 12,9 C 13,3 C 11,7 C 83 % 0 lf 1019,2 hPa 0,0 l/m 0 min 0 min 0 W/m 35,6 km/h (5 Bft) 89,36 %
22.12.2015 20:30 12,9 C 13,3 C 11,7 C 83 % 0 lf 1019,2 hPa 0,0 l/m 0 min 0 min 0 W/m 27,2 km/h (4 Bft) 93,62 %
22.12.2015 20:32 12,9 C 12,8 C 11,1 C 83 % 0 lf 1019,2 hPa 0,0 l/m 0 min 0 min 0 W/m 18,8 km/h (3 Bft) 89,36 %
22.12.2015 20:34 12,9 C 12,8 C 11,1 C 83 % 0 lf 1019,1 hPa 0,0 l/m 0 min 0 min 0 W/m 20,9 km/h (4 Bft) 91,49 %
22.12.2015 20:36 12,9 C 12,8 C 11,7 C 83 % 0 lf 1019,2 hPa 0,0 l/m 0 min 0 min 0 W/m 25,1 km/h (4 Bft) 91,49 %
22.12.2015 20:38 12,9 C 13,3 C 11,1 C 83 % 0 lf 1019,2 hPa 0,0 l/m 0 min 0 min 0 W/m 18,8 km/h (3 Bft) 91,30 %
22.12.2015 20:40 12,9 C 13,3 C 11,1 C 83 % 0 lf 1019,1 hPa 0,0 l/m 0 min 0 min 0 W/m 18,8 km/h (3 Bft) 91,49 %
22.12.2015 20:42 12,9 C 12,8 C 11,1 C 83 % 0 lf 1019,1 hPa 0,0 l/m 0 min 0 min 0 W/m 18,8 km/h (3 Bft) 93,62 %
22.12.2015 20:44 12,9 C 13,3 C 11,1 C 83 % 0 lf 1019,1 hPa 0,0 l/m 0 min 0 min 0 W/m 27,2 km/h (4 Bft) 95,74 %
22.12.2015 20:46 12,9 C 12,8 C 11,7 C 82 % 0 lf 1019,1 hPa 0,0 l/m 0 min 0 min 0 W/m 20,9 km/h (4 Bft) 96,55 %
22.12.2015 20:48 12,9 C 13,3 C 11,7 C 82 % 0 lf 1019,1 hPa 0,0 l/m 0 min 0 min 0 W/m 16,7 km/h (3 Bft) 94,29 %
22.12.2015 20:50 12,9 C 13,3 C 11,7 C 82 % 0 lf 1019,0 hPa 0,0 l/m 0 min 0 min 0 W/m 25,1 km/h (4 Bft) 95,74 %
22.12.2015 20:52 12,9 C 13,3 C 11,7 C 82 % 0 lf 1019,1 hPa 0,0 l/m 0 min 0 min 0 W/m 20,9 km/h (4 Bft) 87,23 %
22.12.2015 20:54 12,9 C 12,8 C 11,1 C 82 % 0 lf 1019,1 hPa 0,0 l/m 0 min 0 min 0 W/m 18,8 km/h (3 Bft) 95,74 %
22.12.2015 20:56 12,9 C 12,8 C 11,1 C 82 % 0 lf 1019,1 hPa 0,0 l/m 0 min 0 min 0 W/m 23,0 km/h (4 Bft) 91,49 %
22.12.2015 20:58 12,9 C 12,8 C 11,7 C 82 % 0 lf 1019,0 hPa 0,0 l/m 0 min 0 min 0 W/m 27,2 km/h (4 Bft) 95,74 %
22.12.2015 21:00 12,9 C 13,3 C 11,7 C 82 % 0 lf 1019,1 hPa 0,0 l/m 0 min 0 min 0 W/m 23,0 km/h (4 Bft) 91,30 %
22.12.2015 21:02 12,9 C 12,8 C 11,1 C 82 % 0 lf 1019,0 hPa 0,0 l/m 0 min 0 min 0 W/m 16,7 km/h (3 Bft) 98,31 %
22.12.2015 21:04 12,9 C 12,8 C 11,1 C 82 % 0 lf 1019,0 hPa 0,0 l/m 0 min 0 min 0 W/m 14,6 km/h (3 Bft) 94,29 %
22.12.2015 21:06 12,9 C 12,8 C 11,1 C 82 % 0 lf 1019,0 hPa 0,0 l/m 0 min 0 min 0 W/m 16,7 km/h (3 Bft) 97,87 %
22.12.2015 21:08 12,9 C 13,3 C 11,7 C 82 % 0 lf 1019,0 hPa 0,0 l/m 0 min 0 min 0 W/m 23,0 km/h (4 Bft) 93,62 %
22.12.2015 21:10 12,9 C 13,3 C 11,7 C 82 % 0 lf 1019,0 hPa 0,0 l/m 0 min 0 min 0 W/m 20,9 km/h (4 Bft) 91,49 %
22.12.2015 21:12 12,9 C 13,3 C 11,7 C 82 % 0 lf 1019,0 hPa 0,0 l/m 0 min 0 min 0 W/m 14,6 km/h (3 Bft) 95,65 %
22.12.2015 21:14 12,9 C 13,3 C 11,7 C 82 % 0 lf 1019,1 hPa 0,0 l/m 0 min 0 min 0 W/m 18,8 km/h (3 Bft) 95,74 %
22.12.2015 21:16 12,9 C 13,3 C 11,7 C 82 % 0 lf 1019,0 hPa 0,0 l/m 0 min 0 min 0 W/m 29,3 km/h (5 Bft) 95,74 %
22.12.2015 21:18 12,9 C 13,3 C 11,7 C 82 % 0 lf 1019,0 hPa 0,0 l/m 0 min 0 min 0 W/m 33,5 km/h (5 Bft) 97,87 %
22.12.2015 21:20 12,9 C 13,3 C 11,7 C 81 % 0 lf 1019,0 hPa 0,0 l/m 0 min 0 min 0 W/m 33,5 km/h (5 Bft) 95,74 %
22.12.2015 21:22 12,9 C 13,3 C 11,7 C 81 % 0 lf 1019,1 hPa 0,0 l/m 0 min 0 min 0 W/m 27,2 km/h (4 Bft) 97,87 %
22.12.2015 21:24 12,9 C 13,3 C 11,7 C 81 % 0 lf 1018,9 hPa 0,0 l/m 0 min 0 min 0 W/m 29,3 km/h (5 Bft) 97,83 %
22.12.2015 21:26 12,9 C 13,3 C 11,7 C 81 % 0 lf 1018,9 hPa 0,0 l/m 0 min 0 min 0 W/m 31,4 km/h (5 Bft) 95,74 %
22.12.2015 21:28 12,9 C 13,3 C 11,7 C 81 % 0 lf 1019,0 hPa 0,0 l/m 0 min 0 min 0 W/m 27,2 km/h (4 Bft) 97,87 %
22.12.2015 21:30 12,9 C 13,3 C 11,7 C 81 % 0 lf 1019,0 hPa 0,0 l/m 0 min 0 min 0 W/m 20,9 km/h (4 Bft) 97,87 %
22.12.2015 21:32 12,9 C 13,3 C 11,7 C 81 % 0 lf 1019,0 hPa 0,0 l/m 0 min 0 min 0 W/m 25,1 km/h (4 Bft) 95,74 %
22.12.2015 21:34 13,0 C 13,3 C 11,7 C 81 % 0 lf 1018,9 hPa 0,0 l/m 0 min 0 min 0 W/m 29,3 km/h (5 Bft) 97,87 %
22.12.2015 21:36 13,0 C 13,3 C 11,7 C 81 % 0 lf 1018,9 hPa 0,0 l/m 0 min 0 min 0 W/m 27,2 km/h (4 Bft) 97,83 %
22.12.2015 21:38 13,0 C 13,3 C 11,7 C 80 % 0 lf 1019,0 hPa 0,0 l/m 0 min 0 min 0 W/m 20,9 km/h (4 Bft) 93,62 %
22.12.2015 21:40 13,0 C 13,3 C 11,7 C 80 % 0 lf 1018,9 hPa 0,0 l/m 0 min 0 min 0 W/m 23,0 km/h (4 Bft) 97,87 %
22.12.2015 21:42 13,1 C 13,3 C 11,7 C 80 % 0 lf 1018,8 hPa 0,0 l/m 0 min 0 min 0 W/m 16,7 km/h (3 Bft) 100,00 %
22.12.2015 21:44 13,1 C 13,3 C 11,7 C 80 % 0 lf 1018,7 hPa 0,0 l/m 0 min 0 min 0 W/m 27,2 km/h (4 Bft) 95,74 %
22.12.2015 21:46 13,1 C 13,3 C 11,7 C 80 % 0 lf 1018,8 hPa 0,0 l/m 0 min 0 min 0 W/m 27,2 km/h (4 Bft) 97,87 %
22.12.2015 21:48 13,1 C 13,3 C 11,7 C 80 % 0 lf 1018,8 hPa 0,0 l/m 0 min 0 min 0 W/m 29,3 km/h (5 Bft) 95,65 %
22.12.2015 21:50 13,1 C 13,3 C 11,7 C 80 % 0 lf 1018,8 hPa 0,0 l/m 0 min 0 min 0 W/m 20,9 km/h (4 Bft) 97,87 %
22.12.2015 21:52 13,1 C 13,3 C 11,7 C 80 % 0 lf 1018,8 hPa 0,0 l/m 0 min 0 min 0 W/m 20,9 km/h (4 Bft) 97,87 %
22.12.2015 21:54 13,1 C 13,3 C 11,7 C 80 % 0 lf 1018,8 hPa 0,0 l/m 0 min 0 min 0 W/m 27,2 km/h (4 Bft) 100,00 %
22.12.2015 21:56 13,1 C 13,3 C 11,7 C 79 % 0 lf 1018,8 hPa 0,0 l/m 0 min 0 min 0 W/m 31,4 km/h (5 Bft) 97,87 %
22.12.2015 21:58 13,1 C 13,3 C 11,7 C 79 % 0 lf 1018,8 hPa 0,0 l/m 0 min 0 min 0 W/m 23,0 km/h (4 Bft) 100,00 %
22.12.2015 22:00 13,1 C 13,3 C 11,7 C 79 % 0 lf 1018,7 hPa 0,0 l/m 0 min 0 min 0 W/m 20,9 km/h (4 Bft) 97,83 %
22.12.2015 22:02 13,1 C 13,3 C 11,7 C 79 % 0 lf 1018,8 hPa 0,0 l/m 0 min 0 min 0 W/m 18,8 km/h (3 Bft) 100,00 %
22.12.2015 22:04 13,1 C 13,3 C 11,7 C 79 % 0 lf 1018,7 hPa 0,0 l/m 0 min 0 min 0 W/m 27,2 km/h (4 Bft) 97,87 %
22.12.2015 22:06 13,1 C 13,3 C 11,7 C 79 % 0 lf 1018,7 hPa 0,0 l/m 0 min 0 min 0 W/m 35,6 km/h (5 Bft) 100,00 %
22.12.2015 22:08 13,1 C 13,3 C 11,7 C 79 % 0 lf 1018,7 hPa 0,0 l/m 0 min 0 min 0 W/m 29,3 km/h (5 Bft) 95,74 %
22.12.2015 22:10 13,1 C 13,3 C 11,7 C 78 % 0 lf 1018,7 hPa 0,0 l/m 0 min 0 min 0 W/m 37,7 km/h (5 Bft) 97,87 %
22.12.2015 22:12 13,1 C 13,3 C 11,7 C 78 % 0 lf 1018,7 hPa 0,0 l/m 0 min 0 min 0 W/m 20,9 km/h (4 Bft) 100,00 %
22.12.2015 22:14 13,1 C 13,3 C 11,7 C 78 % 0 lf 1018,7 hPa 0,0 l/m 0 min 0 min 0 W/m 33,5 km/h (5 Bft) 100,00 %
22.12.2015 22:16 13,1 C 13,3 C 11,7 C 77 % 0 lf 1018,6 hPa 0,0 l/m 0 min 0 min 0 W/m 31,4 km/h (5 Bft) 97,87 %
22.12.2015 22:18 13,1 C 13,3 C 11,7 C 77 % 0 lf 1018,6 hPa 0,0 l/m 0 min 0 min 0 W/m 29,3 km/h (5 Bft) 95,74 %
22.12.2015 22:20 13,1 C 13,3 C 11,7 C 77 % 0 lf 1018,7 hPa 0,0 l/m 0 min 0 min 0 W/m 27,2 km/h (4 Bft) 95,74 %
22.12.2015 22:22 13,1 C 13,3 C 11,7 C 77 % 0 lf 1018,7 hPa 0,0 l/m 0 min 0 min 0 W/m 39,7 km/h (6 Bft) 93,62 %
22.12.2015 22:24 13,1 C 13,3 C 11,7 C 77 % 0 lf 1018,7 hPa 0,0 l/m 0 min 0 min 0 W/m 37,7 km/h (5 Bft) 97,83 %
22.12.2015 22:26 13,1 C 13,3 C 11,7 C 77 % 0 lf 1018,6 hPa 0,0 l/m 0 min 0 min 0 W/m 41,8 km/h (6 Bft) 97,87 %
22.12.2015 22:28 13,1 C 13,3 C 11,7 C 76 % 0 lf 1018,7 hPa 0,0 l/m 0 min 0 min 0 W/m 37,7 km/h (5 Bft) 95,74 %
22.12.2015 22:30 13,1 C 13,3 C 11,7 C 76 % 0 lf 1018,7 hPa 0,0 l/m 0 min 0 min 0 W/m 35,6 km/h (5 Bft) 97,87 %
22.12.2015 22:32 13,1 C 13,3 C 11,7 C 76 % 0 lf 1018,7 hPa 0,0 l/m 0 min 0 min 0 W/m 20,9 km/h (4 Bft) 93,62 %
22.12.2015 22:34 13,1 C 13,3 C 11,7 C 76 % 0 lf 1018,7 hPa 0,0 l/m 0 min 0 min 0 W/m 27,2 km/h (4 Bft) 97,83 %
22.12.2015 22:36 13,1 C 13,3 C 11,7 C 76 % 0 lf 1018,6 hPa 0,0 l/m 0 min 0 min 0 W/m 33,5 km/h (5 Bft) 91,49 %
22.12.2015 22:38 13,1 C 13,3 C 11,7 C 76 % 0 lf 1018,6 hPa 0,0 l/m 0 min 0 min 0 W/m 37,7 km/h (5 Bft) 97,87 %
22.12.2015 22:40 13,1 C 13,3 C 11,7 C 76 % 0 lf 1018,5 hPa 0,0 l/m 0 min 0 min 0 W/m 25,1 km/h (4 Bft) 97,87 %
22.12.2015 22:42 13,1 C 13,3 C 11,7 C 76 % 0 lf 1018,6 hPa 0,0 l/m 0 min 0 min 0 W/m 33,5 km/h (5 Bft) 97,87 %
22.12.2015 22:44 13,0 C 13,3 C 11,7 C 76 % 0 lf 1018,6 hPa 0,0 l/m 0 min 0 min 0 W/m 23,0 km/h (4 Bft) 95,74 %
22.12.2015 22:46 13,0 C 13,3 C 11,7 C 76 % 0 lf 1018,5 hPa 0,0 l/m 0 min 0 min 0 W/m 37,7 km/h (5 Bft) 91,30 %
22.12.2015 22:48 13,0 C 13,3 C 11,7 C 76 % 0 lf 1018,5 hPa 0,0 l/m 0 min 0 min 0 W/m 37,7 km/h (5 Bft) 93,62 %
22.12.2015 22:50 13,0 C 13,3 C 11,1 C 76 % 0 lf 1018,5 hPa 0,0 l/m 0 min 0 min 0 W/m 23,0 km/h (4 Bft) 97,87 %
22.12.2015 22:52 13,0 C 13,3 C 11,1 C 75 % 0 lf 1018,4 hPa 0,0 l/m 0 min 0 min 0 W/m 27,2 km/h (4 Bft) 95,74 %
22.12.2015 22:54 13,0 C 13,3 C 11,7 C 75 % 0 lf 1018,4 hPa 0,0 l/m 0 min 0 min 0 W/m 23,0 km/h (4 Bft) 97,87 %
22.12.2015 22:56 12,9 C 13,3 C 11,7 C 75 % 0 lf 1018,4 hPa 0,0 l/m 0 min 0 min 0 W/m 31,4 km/h (5 Bft) 95,74 %
22.12.2015 22:58 12,9 C 13,3 C 11,1 C 75 % 0 lf 1018,3 hPa 0,0 l/m 0 min 0 min 0 W/m 25,1 km/h (4 Bft) 95,65 %
22.12.2015 23:00 12,9 C 13,3 C 11,1 C 75 % 0 lf 1018,3 hPa 0,0 l/m 0 min 0 min 0 W/m 27,2 km/h (4 Bft) 97,87 %
22.12.2015 23:02 12,9 C 12,8 C 11,1 C 75 % 0 lf 1018,2 hPa 0,0 l/m 0 min 0 min 0 W/m 25,1 km/h (4 Bft) 95,74 %
22.12.2015 23:04 12,9 C 12,8 C 11,1 C 75 % 0 lf 1018,2 hPa 0,0 l/m 0 min 0 min 0 W/m 25,1 km/h (4 Bft) 100,00 %
22.12.2015 23:06 12,9 C 12,8 C 11,1 C 75 % 0 lf 1018,2 hPa 0,0 l/m 0 min 0 min 0 W/m 16,7 km/h (3 Bft) 93,62 %
22.12.2015 23:08 12,9 C 12,8 C 11,1 C 75 % 0 lf 1018,2 hPa 0,0 l/m 0 min 0 min 0 W/m 35,6 km/h (5 Bft) 97,87 %
22.12.2015 23:10 12,9 C 12,8 C 11,1 C 75 % 0 lf 1018,1 hPa 0,0 l/m 0 min 0 min 0 W/m 35,6 km/h (5 Bft) 91,30 %
22.12.2015 23:12 12,9 C 12,8 C 11,1 C 75 % 0 lf 1018,1 hPa 0,0 l/m 0 min 0 min 0 W/m 16,7 km/h (3 Bft) 95,74 %
22.12.2015 23:14 12,9 C 12,8 C 11,1 C 75 % 0 lf 1018,1 hPa 0,0 l/m 0 min 0 min 0 W/m 33,5 km/h (5 Bft) 97,87 %
22.12.2015 23:16 12,9 C 12,8 C 11,1 C 75 % 0 lf 1018,2 hPa 0,0 l/m 0 min 0 min 0 W/m 27,2 km/h (4 Bft) 95,74 %
22.12.2015 23:18 12,9 C 12,8 C 11,1 C 75 % 0 lf 1018,1 hPa 0,0 l/m 0 min 0 min 0 W/m 23,0 km/h (4 Bft) 93,62 %
22.12.2015 23:20 12,9 C 12,8 C 11,1 C 75 % 0 lf 1018,0 hPa 0,0 l/m 0 min 0 min 0 W/m 33,5 km/h (5 Bft) 91,49 %
22.12.2015 23:22 12,9 C 12,8 C 11,1 C 75 % 0 lf 1018,0 hPa 0,0 l/m 0 min 0 min 0 W/m 23,0 km/h (4 Bft) 97,83 %
22.12.2015 23:24 12,9 C 13,3 C 11,1 C 75 % 0 lf 1017,9 hPa 0,0 l/m 0 min 0 min 0 W/m 37,7 km/h (5 Bft) 93,62 %
22.12.2015 23:26 12,9 C 13,3 C 11,7 C 75 % 0 lf 1018,1 hPa 0,0 l/m 0 min 0 min 0 W/m 31,4 km/h (5 Bft) 93,62 %
22.12.2015 23:28 12,9 C 13,3 C 11,7 C 75 % 0 lf 1018,0 hPa 0,0 l/m 0 min 0 min 0 W/m 31,4 km/h (5 Bft) 91,49 %
22.12.2015 23:30 12,9 C 12,8 C 11,1 C 75 % 0 lf 1017,9 hPa 0,0 l/m 0 min 0 min 0 W/m 31,4 km/h (5 Bft) 97,87 %
22.12.2015 23:32 12,9 C 12,8 C 11,1 C 75 % 0 lf 1017,9 hPa 0,0 l/m 0 min 0 min 0 W/m 27,2 km/h (4 Bft) 95,65 %
22.12.2015 23:34 12,9 C 12,8 C 11,7 C 75 % 0 lf 1017,9 hPa 0,0 l/m 0 min 0 min 0 W/m 33,5 km/h (5 Bft) 95,74 %
22.12.2015 23:36 12,9 C 12,8 C 11,7 C 75 % 0 lf 1017,9 hPa 0,0 l/m 0 min 0 min 0 W/m 31,4 km/h (5 Bft) 95,74 %
22.12.2015 23:38 12,9 C 13,3 C 11,7 C 75 % 0 lf 1017,9 hPa 0,0 l/m 0 min 0 min 0 W/m 35,6 km/h (5 Bft) 95,74 %
22.12.2015 23:40 12,9 C 13,3 C 11,7 C 75 % 0 lf 1017,8 hPa 0,0 l/m 0 min 0 min 0 W/m 35,6 km/h (5 Bft) 93,62 %
22.12.2015 23:42 12,9 C 13,3 C 11,7 C 75 % 0 lf 1017,8 hPa 0,0 l/m 0 min 0 min 0 W/m 35,6 km/h (5 Bft) 97,87 %
22.12.2015 23:44 12,9 C 13,3 C 11,1 C 75 % 0 lf 1017,8 hPa 0,0 l/m 0 min 0 min 0 W/m 33,5 km/h (5 Bft) 95,65 %
22.12.2015 23:46 12,9 C 13,3 C 11,7 C 76 % 0 lf 1017,9 hPa 0,0 l/m 0 min 0 min 0 W/m 37,7 km/h (5 Bft) 87,23 %
22.12.2015 23:48 12,9 C 13,3 C 11,1 C 76 % 0 lf 1017,9 hPa 0,0 l/m 0 min 0 min 0 W/m 31,4 km/h (5 Bft) 93,62 %
22.12.2015 23:50 12,9 C 13,3 C 11,7 C 76 % 0 lf 1017,9 hPa 0,0 l/m 0 min 0 min 0 W/m 41,8 km/h (6 Bft) 95,74 %
22.12.2015 23:52 12,9 C 13,3 C 11,7 C 76 % 0 lf 1017,9 hPa 0,0 l/m 0 min 0 min 0 W/m 25,1 km/h (4 Bft) 91,49 %
22.12.2015 23:54 12,9 C 13,3 C 11,7 C 76 % 0 lf 1018,1 hPa 0,0 l/m 0 min 0 min 0 W/m 31,4 km/h (5 Bft) 95,74 %
22.12.2015 23:56 12,9 C 13,3 C 11,7 C 76 % 0 lf 1018,2 hPa 0,0 l/m 0 min 0 min 0 W/m 33,5 km/h (5 Bft) 93,48 %
22.12.2015 23:58 12,9 C 13,3 C 11,7 C 76 % 0 lf 1018,2 hPa 0,0 l/m 0 min 0 min 0 W/m 29,3 km/h (5 Bft) 93,62 %
_ Min-Zeit 06:30 06:14 01:18 22:52 02:22 23:40 - - - - 17:04 20:20
Minimum _ 10,7 C 10,0 C 8,9 C 75 % 0 lf 1017,8 hPa - - - - 10,5 km/h (2 Bft) 85,11 %
_ Max-Zeit 12:56 11:40 12:38 00:00 00:00 00:54 05:00 11:12 00:02 12:40 13:16 01:56
Maximum _ 14,2 C 16,7 C 12,8 C 96 % 15 lf 1022,2 hPa 0,2 l/m 2 min 2 min 266 W/m 52,3 km/h
W-SW (7 Bft)
100,00 %
Durchschnitt _ 12,4 C 12,6 C 10,8 C 88 % 3 lf 1020,3 hPa #2,8 l/m #2:02 h #2:52 h 77 W/m 28,0 km/h (4 Bft) 95,91 %
© 2015 W. Hausmann